GFSGL_prec_pwat_000.txt.gz
Precipitable_Water
0.63 0.60 0.58 0.56 0.49 0.43 0.43 0.43 0.45 0.47 0.45 0.45 0.45 0.45 0.47 0.48 0.50 0.50 0.48 0.46 0.41 0.40 0.39 0.37 0.35 0.35 0.34 0.33 0.32 0.32 0.31 0.31 0.27 0.28 0.31 0.32 0.32 0.33 0.35 0.37 0.37 0.37 0.39
0.62 0.58 0.52 0.47 0.46 0.44 0.46 0.47 0.48 0.47 0.48 0.46 0.47 0.48 0.48 0.48 0.47 0.44 0.42 0.40 0.37 0.34 0.34 0.34 0.32 0.29 0.27 0.27 0.28 0.28 0.29 0.30 0.28 0.25 0.28 0.28 0.29 0.30 0.32 0.33 0.33 0.33 0.33
0.54 0.50 0.47 0.46 0.45 0.44 0.44 0.45 0.48 0.47 0.47 0.48 0.47 0.46 0.46 0.45 0.44 0.41 0.37 0.35 0.35 0.35 0.34 0.31 0.28 0.27 0.26 0.27 0.27 0.27 0.27 0.26 0.26 0.25 0.24 0.26 0.26 0.27 0.26 0.28 0.29 0.30 0.31
0.52 0.46 0.41 0.42 0.44 0.42 0.43 0.43 0.42 0.43 0.42 0.41 0.40 0.39 0.38 0.35 0.34 0.33 0.32 0.33 0.32 0.30 0.29 0.28 0.27 0.26 0.25 0.25 0.24 0.24 0.23 0.22 0.21 0.20 0.20 0.20 0.22 0.24 0.24 0.24 0.24 0.27 0.27
0.45 0.40 0.36 0.36 0.36 0.37 0.35 0.34 0.33 0.31 0.28 0.27 0.25 0.25 0.25 0.25 0.25 0.26 0.24 0.26 0.27 0.27 0.27 0.27 0.26 0.26 0.25 0.24 0.22 0.20 0.20 0.19 0.20 0.21 0.21 0.21 0.21 0.22 0.23 0.24 0.24 0.26 0.27
0.39 0.34 0.33 0.33 0.33 0.31 0.31 0.29 0.26 0.24 0.23 0.23 0.22 0.21 0.21 0.22 0.24 0.23 0.23 0.22 0.23 0.23 0.23 0.24 0.24 0.24 0.23 0.22 0.22 0.22 0.22 0.20 0.20 0.20 0.21 0.20 0.21 0.23 0.26 0.25 0.25 0.24 0.22
0.34 0.31 0.32 0.34 0.30 0.28 0.26 0.24 0.22 0.21 0.21 0.20 0.20 0.21 0.22 0.22 0.22 0.21 0.21 0.20 0.20 0.21 0.22 0.23 0.22 0.21 0.21 0.21 0.22 0.23 0.23 0.24 0.24 0.24 0.22 0.24 0.25 0.28 0.29 0.28 0.27 0.26 0.25
0.31 0.31 0.34 0.32 0.28 0.26 0.25 0.23 0.22 0.20 0.19 0.20 0.21 0.21 0.22 0.23 0.22 0.22 0.21 0.21 0.22 0.22 0.23 0.22 0.21 0.21 0.22 0.23 0.23 0.23 0.24 0.25 0.27 0.29 0.28 0.28 0.29 0.30 0.30 0.30 0.29 0.30 0.31
0.31 0.32 0.35 0.31 0.29 0.26 0.24 0.22 0.21 0.20 0.20 0.21 0.23 0.23 0.23 0.23 0.24 0.22 0.21 0.21 0.21 0.21 0.22 0.22 0.22 0.22 0.24 0.25 0.24 0.24 0.25 0.26 0.30 0.32 0.31 0.31 0.32 0.33 0.33 0.32 0.30 0.28 0.26
0.30 0.34 0.32 0.31 0.29 0.26 0.22 0.21 0.22 0.21 0.21 0.24 0.25 0.26 0.24 0.23 0.24 0.22 0.21 0.20 0.20 0.20 0.22 0.22 0.24 0.24 0.24 0.26 0.26 0.26 0.24 0.26 0.29 0.31 0.31 0.35 0.35 0.33 0.33 0.33 0.32 0.28 0.28
0.31 0.32 0.33 0.32 0.28 0.23 0.21 0.22 0.23 0.23 0.24 0.26 0.25 0.25 0.25 0.25 0.23 0.22 0.22 0.21 0.22 0.21 0.21 0.22 0.24 0.27 0.27 0.27 0.27 0.27 0.27 0.30 0.28 0.28 0.29 0.30 0.31 0.33 0.35 0.36 0.35 0.33 0.30
0.33 0.32 0.32 0.30 0.25 0.22 0.22 0.23 0.24 0.24 0.24 0.25 0.24 0.24 0.24 0.24 0.23 0.22 0.22 0.24 0.24 0.23 0.22 0.24 0.27 0.27 0.27 0.27 0.27 0.29 0.28 0.28 0.28 0.28 0.28 0.28 0.29 0.30 0.32 0.34 0.35 0.35 0.36
0.32 0.30 0.30 0.27 0.23 0.23 0.23 0.24 0.23 0.24 0.24 0.23 0.22 0.21 0.21 0.23 0.23 0.25 0.25 0.25 0.24 0.24 0.26 0.27 0.27 0.27 0.27 0.28 0.29 0.28 0.28 0.29 0.28 0.27 0.27 0.29 0.31 0.33 0.35 0.36 0.36 0.36 0.35
0.30 0.29 0.28 0.23 0.22 0.23 0.24 0.24 0.23 0.23 0.23 0.21 0.21 0.20 0.21 0.22 0.21 0.24 0.24 0.25 0.26 0.26 0.27 0.28 0.27 0.27 0.28 0.29 0.28 0.28 0.28 0.28 0.27 0.27 0.27 0.30 0.32 0.33 0.33 0.35 0.33 0.34 0.32
0.28 0.28 0.23 0.22 0.23 0.23 0.24 0.23 0.23 0.24 0.22 0.20 0.20 0.21 0.21 0.19 0.20 0.24 0.24 0.24 0.25 0.25 0.26 0.26 0.25 0.25 0.26 0.26 0.25 0.26 0.26 0.26 0.26 0.27 0.27 0.28 0.29 0.30 0.31 0.32 0.32 0.31 0.29
0.27 0.23 0.22 0.22 0.24 0.24 0.23 0.23 0.25 0.24 0.22 0.20 0.21 0.22 0.21 0.20 0.23 0.25 0.25 0.25 0.25 0.26 0.25 0.23 0.23 0.24 0.25 0.25 0.25 0.24 0.25 0.24 0.25 0.26 0.27 0.28 0.27 0.28 0.28 0.29 0.29 0.28 0.27
0.25 0.22 0.23 0.23 0.24 0.23 0.23 0.23 0.21 0.23 0.23 0.22 0.23 0.21 0.19 0.20 0.24 0.24 0.25 0.25 0.25 0.25 0.23 0.23 0.23 0.24 0.24 0.25 0.25 0.25 0.24 0.25 0.26 0.26 0.26 0.26 0.27 0.27 0.28 0.27 0.28 0.28 0.27
0.23 0.22 0.23 0.24 0.24 0.24 0.24 0.23 0.23 0.21 0.19 0.20 0.23 0.19 0.20 0.22 0.23 0.24 0.24 0.25 0.23 0.23 0.23 0.23 0.23 0.24 0.22 0.22 0.24 0.24 0.25 0.26 0.25 0.25 0.25 0.26 0.26 0.26 0.25 0.26 0.27 0.27 0.28
0.22 0.24 0.24 0.25 0.25 0.24 0.24 0.24 0.23 0.21 0.19 0.20 0.20 0.19 0.23 0.23 0.23 0.23 0.24 0.23 0.22 0.22 0.23 0.23 0.22 0.19 0.17 0.17 0.18 0.20 0.23 0.24 0.25 0.25 0.25 0.25 0.26 0.26 0.25 0.25 0.26 0.26 0.27
0.22 0.24 0.24 0.24 0.24 0.23 0.24 0.23 0.22 0.21 0.19 0.19 0.18 0.18 0.21 0.22 0.21 0.21 0.22 0.22 0.21 0.21 0.21 0.20 0.19 0.18 0.17 0.16 0.16 0.15 0.15 0.17 0.19 0.22 0.24 0.25 0.25 0.26 0.25 0.25 0.24 0.24 0.24
0.23 0.23 0.24 0.24 0.23 0.23 0.23 0.23 0.22 0.21 0.19 0.19 0.18 0.19 0.20 0.21 0.21 0.21 0.21 0.20 0.19 0.18 0.18 0.17 0.17 0.17 0.17 0.17 0.16 0.16 0.16 0.16 0.16 0.17 0.19 0.23 0.24 0.24 0.25 0.25 0.25 0.25 0.24
0.23 0.24 0.24 0.23 0.23 0.23 0.23 0.24 0.23 0.22 0.20 0.19 0.18 0.18 0.20 0.21 0.21 0.21 0.21 0.20 0.19 0.18 0.17 0.17 0.17 0.17 0.17 0.16 0.15 0.15 0.15 0.15 0.15 0.15 0.17 0.18 0.20 0.22 0.23 0.23 0.24 0.24 0.24
0.23 0.23 0.24 0.24 0.23 0.23 0.23 0.24 0.23 0.23 0.21 0.20 0.19 0.18 0.18 0.20 0.21 0.21 0.21 0.21 0.19 0.18 0.17 0.17 0.16 0.16 0.16 0.17 0.16 0.16 0.15 0.14 0.15 0.15 0.14 0.15 0.16 0.17 0.19 0.19 0.19 0.20 0.20
0.23 0.23 0.24 0.24 0.23 0.23 0.23 0.24 0.24 0.23 0.22 0.20 0.20 0.19 0.17 0.17 0.19 0.21 0.22 0.22 0.21 0.20 0.18 0.17 0.16 0.16 0.16 0.16 0.16 0.15 0.14 0.14 0.14 0.14 0.14 0.14 0.14 0.15 0.15 0.15 0.16 0.16 0.17
0.23 0.23 0.24 0.24 0.23 0.23 0.24 0.24 0.24 0.23 0.23 0.21 0.20 0.19 0.18 0.17 0.17 0.18 0.21 0.22 0.22 0.21 0.18 0.18 0.17 0.16 0.16 0.15 0.15 0.15 0.14 0.13 0.13 0.12 0.14 0.14 0.13 0.13 0.14 0.14 0.14 0.15 0.15
0.23 0.24 0.23 0.24 0.24 0.24 0.23 0.23 0.23 0.23 0.22 0.22 0.21 0.20 0.19 0.17 0.17 0.17 0.18 0.19 0.19 0.19 0.18 0.18 0.18 0.17 0.16 0.16 0.15 0.15 0.15 0.14 0.13 0.13 0.14 0.14 0.13 0.12 0.13 0.13 0.13 0.14 0.13

GFSGL_prec_pwat_003.txt.gz
Precipitable_Water
0.69 0.68 0.65 0.62 0.57 0.55 0.52 0.50 0.48 0.45 0.44 0.46 0.45 0.45 0.46 0.46 0.48 0.47 0.46 0.45 0.45 0.46 0.44 0.42 0.40 0.40 0.37 0.34 0.34 0.33 0.33 0.34 0.30 0.31 0.34 0.35 0.36 0.37 0.39 0.42 0.43 0.44 0.44
0.68 0.63 0.58 0.56 0.54 0.48 0.46 0.45 0.43 0.42 0.43 0.43 0.43 0.44 0.46 0.48 0.48 0.46 0.44 0.41 0.39 0.38 0.39 0.39 0.38 0.38 0.36 0.34 0.32 0.30 0.29 0.29 0.28 0.26 0.30 0.32 0.34 0.36 0.36 0.37 0.38 0.40 0.40
0.61 0.55 0.52 0.47 0.42 0.41 0.38 0.37 0.38 0.39 0.38 0.39 0.39 0.39 0.38 0.38 0.36 0.35 0.34 0.35 0.36 0.35 0.34 0.34 0.33 0.32 0.31 0.30 0.31 0.30 0.30 0.30 0.29 0.28 0.27 0.29 0.30 0.31 0.31 0.33 0.34 0.35 0.36
0.53 0.47 0.41 0.37 0.35 0.34 0.34 0.35 0.34 0.33 0.31 0.29 0.28 0.27 0.27 0.26 0.25 0.26 0.26 0.25 0.23 0.25 0.27 0.28 0.28 0.28 0.28 0.28 0.28 0.28 0.28 0.27 0.26 0.25 0.24 0.24 0.24 0.25 0.26 0.26 0.26 0.29 0.29
0.47 0.42 0.37 0.32 0.32 0.31 0.31 0.31 0.30 0.29 0.27 0.25 0.25 0.24 0.24 0.24 0.25 0.25 0.24 0.21 0.21 0.21 0.22 0.23 0.25 0.27 0.27 0.26 0.25 0.24 0.24 0.23 0.23 0.22 0.22 0.22 0.23 0.24 0.24 0.27 0.26 0.28 0.29
0.46 0.39 0.36 0.33 0.33 0.31 0.29 0.27 0.26 0.25 0.24 0.24 0.23 0.24 0.24 0.24 0.26 0.24 0.23 0.22 0.20 0.20 0.20 0.22 0.23 0.24 0.26 0.26 0.26 0.25 0.23 0.20 0.20 0.21 0.20 0.21 0.22 0.24 0.25 0.25 0.26 0.25 0.23
0.42 0.39 0.35 0.34 0.34 0.31 0.30 0.26 0.26 0.25 0.25 0.23 0.24 0.24 0.24 0.25 0.27 0.25 0.24 0.22 0.21 0.20 0.21 0.22 0.23 0.23 0.23 0.23 0.23 0.24 0.25 0.25 0.24 0.22 0.19 0.19 0.20 0.22 0.25 0.25 0.26 0.27 0.26
0.39 0.36 0.35 0.37 0.36 0.32 0.29 0.27 0.26 0.24 0.24 0.24 0.24 0.25 0.25 0.26 0.27 0.26 0.25 0.23 0.22 0.22 0.23 0.23 0.23 0.23 0.23 0.24 0.24 0.24 0.23 0.23 0.24 0.25 0.25 0.24 0.25 0.27 0.28 0.28 0.29 0.29 0.30
0.38 0.39 0.39 0.36 0.37 0.33 0.28 0.27 0.25 0.24 0.25 0.24 0.24 0.25 0.25 0.26 0.26 0.27 0.24 0.22 0.21 0.21 0.22 0.23 0.24 0.23 0.21 0.22 0.22 0.21 0.22 0.23 0.26 0.28 0.28 0.28 0.29 0.30 0.31 0.32 0.29 0.29 0.26
0.35 0.31 0.33 0.35 0.36 0.34 0.29 0.26 0.25 0.24 0.25 0.26 0.26 0.26 0.26 0.25 0.28 0.26 0.24 0.22 0.21 0.22 0.23 0.23 0.23 0.24 0.25 0.24 0.24 0.23 0.22 0.24 0.26 0.28 0.30 0.33 0.36 0.35 0.34 0.32 0.30 0.27 0.27
0.33 0.32 0.35 0.37 0.35 0.32 0.27 0.25 0.24 0.25 0.25 0.27 0.26 0.26 0.26 0.28 0.26 0.26 0.25 0.23 0.24 0.24 0.23 0.23 0.25 0.26 0.26 0.26 0.26 0.24 0.24 0.28 0.27 0.27 0.28 0.29 0.29 0.30 0.31 0.35 0.34 0.32 0.28
0.37 0.35 0.35 0.34 0.32 0.27 0.25 0.24 0.25 0.24 0.25 0.24 0.24 0.23 0.25 0.26 0.27 0.26 0.25 0.25 0.26 0.23 0.23 0.25 0.27 0.25 0.25 0.25 0.26 0.27 0.28 0.27 0.28 0.28 0.28 0.28 0.29 0.29 0.31 0.32 0.34 0.37 0.37
0.38 0.37 0.34 0.31 0.28 0.25 0.23 0.23 0.23 0.23 0.23 0.23 0.21 0.21 0.22 0.24 0.24 0.24 0.24 0.26 0.25 0.25 0.26 0.26 0.27 0.26 0.26 0.27 0.28 0.27 0.28 0.28 0.28 0.26 0.26 0.28 0.30 0.33 0.34 0.35 0.36 0.38 0.37
0.33 0.31 0.30 0.29 0.26 0.23 0.24 0.23 0.23 0.22 0.22 0.21 0.19 0.19 0.21 0.22 0.21 0.23 0.25 0.25 0.26 0.25 0.26 0.26 0.27 0.26 0.27 0.28 0.28 0.29 0.29 0.28 0.26 0.26 0.27 0.29 0.31 0.32 0.32 0.34 0.33 0.33 0.32
0.33 0.30 0.28 0.27 0.24 0.23 0.23 0.24 0.22 0.24 0.23 0.20 0.18 0.20 0.19 0.18 0.20 0.24 0.25 0.24 0.25 0.25 0.25 0.26 0.25 0.24 0.25 0.26 0.26 0.26 0.27 0.26 0.26 0.26 0.27 0.27 0.29 0.30 0.30 0.33 0.30 0.30 0.28
0.29 0.27 0.28 0.25 0.24 0.23 0.23 0.23 0.25 0.25 0.23 0.22 0.21 0.21 0.20 0.21 0.23 0.24 0.25 0.25 0.25 0.26 0.25 0.23 0.23 0.23 0.24 0.25 0.25 0.25 0.25 0.25 0.25 0.26 0.26 0.27 0.27 0.28 0.28 0.31 0.30 0.28 0.27
0.29 0.27 0.24 0.23 0.24 0.23 0.23 0.22 0.21 0.25 0.25 0.23 0.22 0.21 0.20 0.22 0.22 0.23 0.24 0.25 0.26 0.25 0.23 0.23 0.23 0.23 0.23 0.24 0.25 0.25 0.24 0.25 0.26 0.26 0.26 0.26 0.27 0.27 0.27 0.27 0.28 0.29 0.28
0.29 0.25 0.24 0.25 0.25 0.24 0.23 0.23 0.23 0.22 0.21 0.21 0.23 0.21 0.21 0.23 0.22 0.23 0.24 0.25 0.23 0.24 0.23 0.23 0.22 0.19 0.18 0.19 0.21 0.23 0.25 0.25 0.26 0.26 0.25 0.26 0.26 0.26 0.26 0.25 0.26 0.26 0.26
0.24 0.23 0.25 0.26 0.25 0.24 0.24 0.24 0.24 0.23 0.22 0.21 0.21 0.20 0.20 0.22 0.24 0.24 0.23 0.23 0.22 0.22 0.22 0.22 0.20 0.18 0.17 0.17 0.17 0.18 0.20 0.21 0.24 0.25 0.25 0.25 0.26 0.26 0.25 0.25 0.25 0.26 0.26
0.25 0.23 0.24 0.25 0.24 0.24 0.24 0.23 0.23 0.23 0.22 0.21 0.20 0.19 0.17 0.20 0.21 0.21 0.22 0.21 0.20 0.20 0.20 0.20 0.19 0.18 0.18 0.18 0.18 0.18 0.18 0.18 0.18 0.21 0.24 0.25 0.26 0.26 0.26 0.25 0.25 0.24 0.24
0.24 0.24 0.24 0.24 0.25 0.24 0.23 0.23 0.23 0.23 0.22 0.21 0.20 0.21 0.17 0.17 0.19 0.20 0.21 0.21 0.19 0.18 0.18 0.18 0.19 0.19 0.18 0.17 0.16 0.16 0.17 0.17 0.17 0.17 0.18 0.21 0.24 0.24 0.25 0.25 0.25 0.26 0.25
0.22 0.23 0.25 0.25 0.25 0.25 0.24 0.23 0.23 0.23 0.23 0.22 0.21 0.21 0.20 0.19 0.19 0.20 0.21 0.21 0.20 0.19 0.18 0.18 0.18 0.18 0.17 0.17 0.17 0.16 0.15 0.15 0.15 0.15 0.15 0.17 0.19 0.19 0.22 0.22 0.22 0.23 0.23
0.23 0.23 0.24 0.25 0.25 0.24 0.24 0.24 0.24 0.24 0.23 0.23 0.22 0.20 0.20 0.19 0.18 0.19 0.20 0.21 0.22 0.21 0.19 0.18 0.17 0.17 0.17 0.18 0.18 0.17 0.15 0.13 0.14 0.14 0.14 0.15 0.16 0.16 0.17 0.17 0.18 0.17 0.18
0.24 0.24 0.24 0.25 0.25 0.24 0.24 0.24 0.24 0.24 0.23 0.22 0.22 0.21 0.20 0.19 0.19 0.19 0.19 0.21 0.22 0.22 0.20 0.19 0.18 0.17 0.17 0.17 0.17 0.17 0.16 0.15 0.14 0.13 0.15 0.16 0.15 0.15 0.15 0.15 0.16 0.16 0.15
0.24 0.24 0.24 0.24 0.24 0.24 0.24 0.24 0.24 0.23 0.23 0.23 0.22 0.22 0.21 0.20 0.19 0.19 0.19 0.19 0.20 0.21 0.20 0.20 0.20 0.18 0.17 0.17 0.16 0.16 0.15 0.15 0.14 0.14 0.16 0.16 0.15 0.14 0.15 0.15 0.14 0.16 0.15
0.23 0.23 0.24 0.24 0.24 0.24 0.24 0.23 0.23 0.23 0.23 0.23 0.22 0.22 0.22 0.20 0.20 0.20 0.19 0.19 0.19 0.18 0.19 0.18 0.18 0.18 0.18 0.19 0.18 0.17 0.16 0.16 0.15 0.15 0.16 0.15 0.14 0.14 0.13 0.14 0.13 0.14 0.14

GFSGL_prec_pwat_006.txt.gz
Precipitable_Water
0.68 0.67 0.65 0.60 0.57 0.55 0.51 0.46 0.41 0.38 0.33 0.33 0.34 0.36 0.38 0.40 0.43 0.41 0.41 0.42 0.41 0.39 0.40 0.42 0.43 0.45 0.44 0.44 0.43 0.40 0.36 0.34 0.29 0.30 0.33 0.36 0.36 0.39 0.43 0.46 0.50 0.49 0.49
0.66 0.62 0.56 0.54 0.51 0.46 0.42 0.39 0.35 0.33 0.35 0.36 0.36 0.35 0.35 0.35 0.34 0.35 0.34 0.35 0.33 0.35 0.37 0.36 0.35 0.35 0.35 0.35 0.36 0.35 0.34 0.34 0.31 0.27 0.29 0.29 0.30 0.34 0.36 0.38 0.40 0.44 0.45
0.60 0.56 0.50 0.47 0.43 0.40 0.36 0.36 0.34 0.32 0.33 0.32 0.30 0.27 0.25 0.24 0.24 0.24 0.25 0.26 0.26 0.26 0.24 0.23 0.24 0.27 0.27 0.27 0.26 0.28 0.30 0.32 0.32 0.30 0.29 0.30 0.29 0.29 0.30 0.33 0.35 0.37 0.39
0.54 0.51 0.46 0.45 0.40 0.35 0.34 0.32 0.31 0.31 0.28 0.27 0.26 0.26 0.25 0.25 0.25 0.26 0.26 0.25 0.24 0.22 0.20 0.18 0.20 0.23 0.26 0.28 0.29 0.28 0.27 0.27 0.28 0.26 0.25 0.25 0.25 0.26 0.26 0.24 0.24 0.28 0.30
0.54 0.52 0.44 0.41 0.39 0.35 0.34 0.32 0.31 0.28 0.26 0.26 0.25 0.25 0.25 0.25 0.26 0.26 0.24 0.24 0.24 0.23 0.22 0.21 0.21 0.22 0.23 0.25 0.25 0.27 0.26 0.22 0.21 0.21 0.21 0.22 0.22 0.23 0.24 0.30 0.31 0.32 0.32
0.45 0.42 0.43 0.47 0.45 0.42 0.40 0.35 0.31 0.28 0.27 0.27 0.26 0.25 0.24 0.26 0.28 0.27 0.26 0.26 0.25 0.24 0.22 0.22 0.22 0.22 0.23 0.26 0.27 0.26 0.25 0.21 0.19 0.19 0.19 0.19 0.20 0.23 0.25 0.27 0.28 0.27 0.25
0.38 0.40 0.43 0.49 0.47 0.45 0.39 0.33 0.32 0.29 0.27 0.27 0.25 0.26 0.26 0.27 0.28 0.28 0.27 0.26 0.25 0.23 0.21 0.22 0.22 0.24 0.26 0.27 0.28 0.28 0.27 0.28 0.27 0.25 0.22 0.21 0.20 0.20 0.22 0.22 0.24 0.25 0.26
0.31 0.38 0.46 0.44 0.41 0.40 0.33 0.35 0.34 0.30 0.28 0.25 0.27 0.28 0.28 0.27 0.27 0.26 0.26 0.26 0.24 0.22 0.22 0.22 0.21 0.22 0.25 0.26 0.26 0.25 0.25 0.25 0.25 0.26 0.25 0.24 0.26 0.26 0.25 0.25 0.25 0.25 0.26
0.29 0.34 0.43 0.40 0.40 0.34 0.33 0.36 0.33 0.29 0.25 0.27 0.28 0.29 0.27 0.26 0.25 0.28 0.29 0.26 0.25 0.23 0.23 0.25 0.26 0.23 0.23 0.24 0.23 0.21 0.21 0.21 0.23 0.24 0.26 0.28 0.29 0.29 0.29 0.28 0.24 0.24 0.24
0.34 0.36 0.41 0.39 0.40 0.37 0.36 0.34 0.30 0.27 0.26 0.28 0.27 0.27 0.26 0.23 0.28 0.29 0.29 0.26 0.23 0.23 0.25 0.24 0.24 0.25 0.27 0.27 0.25 0.25 0.22 0.23 0.25 0.24 0.25 0.26 0.27 0.28 0.31 0.33 0.32 0.27 0.25
0.36 0.36 0.39 0.42 0.39 0.34 0.33 0.30 0.27 0.24 0.25 0.26 0.25 0.25 0.24 0.25 0.27 0.28 0.28 0.25 0.24 0.23 0.23 0.23 0.25 0.27 0.26 0.25 0.25 0.23 0.22 0.24 0.24 0.24 0.24 0.25 0.27 0.28 0.30 0.30 0.33 0.33 0.29
0.34 0.36 0.36 0.36 0.34 0.32 0.30 0.29 0.23 0.23 0.24 0.24 0.23 0.22 0.23 0.24 0.25 0.25 0.26 0.25 0.25 0.24 0.23 0.25 0.25 0.26 0.26 0.26 0.26 0.26 0.27 0.26 0.26 0.25 0.26 0.27 0.28 0.29 0.31 0.32 0.32 0.34 0.36
0.31 0.32 0.33 0.33 0.32 0.32 0.29 0.22 0.22 0.23 0.23 0.22 0.21 0.19 0.18 0.21 0.21 0.24 0.23 0.24 0.25 0.25 0.25 0.26 0.26 0.26 0.26 0.26 0.27 0.27 0.27 0.27 0.27 0.26 0.26 0.27 0.29 0.31 0.32 0.32 0.34 0.35 0.35
0.31 0.32 0.33 0.31 0.31 0.29 0.24 0.23 0.23 0.23 0.22 0.21 0.20 0.18 0.18 0.19 0.20 0.23 0.24 0.25 0.25 0.25 0.25 0.26 0.26 0.26 0.26 0.27 0.27 0.27 0.27 0.28 0.26 0.26 0.26 0.28 0.30 0.31 0.31 0.33 0.32 0.33 0.32
0.32 0.31 0.30 0.31 0.29 0.25 0.23 0.23 0.23 0.24 0.23 0.22 0.21 0.20 0.18 0.17 0.21 0.23 0.24 0.25 0.25 0.25 0.25 0.25 0.24 0.24 0.24 0.25 0.25 0.25 0.26 0.25 0.25 0.26 0.26 0.27 0.27 0.28 0.29 0.31 0.31 0.29 0.27
0.31 0.29 0.30 0.27 0.24 0.23 0.24 0.23 0.25 0.25 0.25 0.24 0.23 0.21 0.20 0.20 0.22 0.23 0.24 0.25 0.26 0.26 0.24 0.23 0.22 0.23 0.23 0.24 0.23 0.23 0.24 0.24 0.25 0.25 0.26 0.26 0.26 0.27 0.27 0.29 0.30 0.29 0.27
0.30 0.29 0.26 0.23 0.25 0.25 0.24 0.22 0.20 0.24 0.25 0.25 0.25 0.23 0.21 0.20 0.22 0.23 0.23 0.25 0.26 0.25 0.23 0.23 0.22 0.20 0.19 0.21 0.24 0.24 0.24 0.25 0.26 0.25 0.25 0.25 0.26 0.26 0.27 0.26 0.26 0.27 0.27
0.32 0.28 0.24 0.25 0.25 0.24 0.23 0.22 0.22 0.22 0.21 0.22 0.25 0.24 0.21 0.20 0.20 0.23 0.23 0.23 0.23 0.24 0.23 0.22 0.21 0.18 0.17 0.16 0.17 0.19 0.22 0.25 0.25 0.25 0.25 0.26 0.26 0.26 0.25 0.25 0.25 0.26 0.26
0.30 0.27 0.24 0.23 0.24 0.24 0.23 0.23 0.23 0.23 0.22 0.22 0.23 0.23 0.22 0.19 0.20 0.22 0.22 0.21 0.19 0.19 0.20 0.21 0.20 0.19 0.19 0.18 0.18 0.18 0.19 0.19 0.22 0.24 0.24 0.25 0.26 0.26 0.25 0.25 0.25 0.25 0.25
0.29 0.27 0.25 0.22 0.24 0.24 0.24 0.23 0.23 0.22 0.22 0.22 0.22 0.22 0.21 0.18 0.17 0.18 0.20 0.21 0.19 0.18 0.18 0.19 0.20 0.20 0.18 0.17 0.17 0.17 0.17 0.17 0.17 0.18 0.22 0.24 0.25 0.26 0.25 0.25 0.25 0.25 0.24
0.27 0.26 0.25 0.22 0.22 0.25 0.23 0.23 0.24 0.23 0.23 0.22 0.22 0.23 0.21 0.18 0.18 0.18 0.18 0.19 0.19 0.18 0.17 0.17 0.18 0.18 0.18 0.18 0.17 0.16 0.15 0.15 0.15 0.15 0.17 0.18 0.21 0.22 0.24 0.25 0.24 0.25 0.24
0.26 0.23 0.23 0.23 0.24 0.24 0.24 0.24 0.23 0.23 0.23 0.23 0.22 0.22 0.21 0.20 0.20 0.18 0.18 0.19 0.19 0.20 0.19 0.18 0.17 0.17 0.17 0.17 0.18 0.16 0.15 0.13 0.12 0.13 0.14 0.15 0.17 0.17 0.18 0.19 0.19 0.19 0.20
0.24 0.23 0.23 0.24 0.25 0.25 0.24 0.24 0.24 0.24 0.23 0.23 0.22 0.22 0.21 0.21 0.20 0.19 0.18 0.19 0.20 0.20 0.21 0.19 0.18 0.18 0.18 0.17 0.18 0.17 0.16 0.14 0.13 0.13 0.14 0.14 0.15 0.14 0.16 0.16 0.16 0.16 0.15
0.24 0.24 0.23 0.23 0.24 0.24 0.23 0.23 0.25 0.24 0.23 0.23 0.22 0.22 0.21 0.21 0.20 0.19 0.19 0.20 0.20 0.19 0.20 0.20 0.19 0.19 0.18 0.18 0.18 0.16 0.16 0.15 0.15 0.14 0.15 0.16 0.15 0.15 0.15 0.15 0.14 0.16 0.15
0.25 0.24 0.23 0.23 0.23 0.23 0.24 0.23 0.23 0.23 0.23 0.23 0.23 0.22 0.22 0.21 0.21 0.20 0.20 0.20 0.19 0.19 0.19 0.19 0.18 0.18 0.18 0.19 0.19 0.18 0.17 0.17 0.16 0.15 0.16 0.16 0.15 0.14 0.14 0.15 0.13 0.15 0.14
0.27 0.25 0.22 0.23 0.23 0.23 0.23 0.24 0.23 0.23 0.23 0.23 0.22 0.22 0.22 0.21 0.21 0.20 0.20 0.20 0.19 0.19 0.18 0.20 0.19 0.19 0.18 0.19 0.19 0.17 0.17 0.16 0.16 0.16 0.17 0.17 0.15 0.14 0.13 0.14 0.13 0.14 0.13

GFSGL_prec_pwat_009.txt.gz
Precipitable_Water
0.61 0.58 0.54 0.51 0.48 0.48 0.45 0.42 0.40 0.36 0.32 0.32 0.31 0.31 0.30 0.30 0.29 0.28 0.27 0.27 0.28 0.29 0.30 0.30 0.30 0.33 0.34 0.37 0.39 0.38 0.37 0.37 0.33 0.33 0.34 0.33 0.32 0.32 0.35 0.41 0.48 0.54 0.58
0.48 0.47 0.48 0.49 0.50 0.46 0.44 0.42 0.38 0.34 0.33 0.32 0.28 0.26 0.25 0.25 0.25 0.25 0.25 0.26 0.25 0.24 0.25 0.25 0.23 0.23 0.20 0.22 0.25 0.28 0.31 0.31 0.28 0.27 0.31 0.31 0.30 0.32 0.32 0.32 0.36 0.42 0.47
0.48 0.49 0.50 0.49 0.49 0.50 0.47 0.41 0.42 0.39 0.36 0.31 0.26 0.24 0.24 0.25 0.24 0.25 0.25 0.24 0.24 0.25 0.25 0.24 0.23 0.22 0.18 0.18 0.23 0.24 0.25 0.28 0.27 0.25 0.26 0.30 0.30 0.31 0.30 0.30 0.31 0.35 0.38
0.41 0.44 0.43 0.43 0.49 0.49 0.43 0.45 0.42 0.41 0.34 0.28 0.26 0.24 0.25 0.24 0.25 0.24 0.23 0.23 0.25 0.26 0.25 0.24 0.24 0.22 0.21 0.20 0.21 0.22 0.23 0.25 0.25 0.24 0.23 0.23 0.24 0.27 0.29 0.28 0.25 0.32 0.33
0.33 0.33 0.35 0.45 0.48 0.48 0.52 0.47 0.49 0.40 0.31 0.28 0.28 0.25 0.27 0.25 0.25 0.26 0.27 0.26 0.25 0.24 0.23 0.23 0.22 0.22 0.24 0.25 0.25 0.25 0.25 0.25 0.23 0.20 0.20 0.19 0.19 0.19 0.21 0.25 0.23 0.26 0.29
0.27 0.26 0.31 0.41 0.45 0.47 0.47 0.51 0.40 0.34 0.31 0.31 0.27 0.27 0.25 0.26 0.28 0.29 0.29 0.26 0.24 0.23 0.22 0.21 0.21 0.22 0.24 0.25 0.27 0.29 0.29 0.27 0.24 0.22 0.20 0.18 0.18 0.20 0.21 0.20 0.22 0.23 0.22
0.26 0.29 0.35 0.40 0.39 0.42 0.43 0.45 0.40 0.37 0.33 0.30 0.28 0.25 0.26 0.29 0.30 0.30 0.27 0.25 0.25 0.25 0.23 0.22 0.21 0.23 0.23 0.23 0.25 0.26 0.27 0.28 0.28 0.27 0.24 0.22 0.21 0.22 0.21 0.20 0.21 0.22 0.24
0.25 0.28 0.31 0.34 0.33 0.37 0.42 0.42 0.39 0.34 0.30 0.29 0.25 0.26 0.28 0.27 0.26 0.26 0.26 0.27 0.26 0.26 0.24 0.22 0.23 0.24 0.26 0.25 0.24 0.23 0.24 0.24 0.24 0.24 0.24 0.23 0.23 0.24 0.24 0.24 0.25 0.26 0.26
0.28 0.29 0.31 0.32 0.33 0.37 0.41 0.43 0.36 0.30 0.29 0.27 0.25 0.26 0.24 0.24 0.25 0.25 0.26 0.26 0.25 0.24 0.24 0.25 0.24 0.23 0.24 0.26 0.25 0.24 0.24 0.24 0.25 0.25 0.25 0.27 0.28 0.29 0.29 0.28 0.24 0.22 0.19
0.31 0.33 0.33 0.33 0.34 0.34 0.34 0.34 0.30 0.30 0.29 0.25 0.25 0.25 0.25 0.24 0.23 0.24 0.27 0.25 0.23 0.23 0.25 0.25 0.25 0.26 0.27 0.26 0.24 0.23 0.21 0.21 0.22 0.23 0.24 0.24 0.23 0.23 0.24 0.25 0.25 0.23 0.23
0.33 0.33 0.32 0.33 0.34 0.34 0.33 0.31 0.30 0.29 0.25 0.23 0.23 0.23 0.23 0.22 0.20 0.23 0.24 0.24 0.23 0.23 0.24 0.24 0.25 0.25 0.26 0.26 0.25 0.24 0.23 0.24 0.23 0.23 0.22 0.22 0.23 0.25 0.26 0.28 0.28 0.27 0.26
0.32 0.31 0.30 0.32 0.33 0.33 0.32 0.32 0.30 0.24 0.21 0.21 0.21 0.21 0.21 0.20 0.19 0.21 0.23 0.23 0.25 0.24 0.24 0.24 0.25 0.26 0.25 0.26 0.26 0.26 0.26 0.26 0.25 0.24 0.24 0.24 0.26 0.27 0.30 0.33 0.34 0.33 0.34
0.30 0.29 0.30 0.31 0.31 0.32 0.32 0.29 0.23 0.22 0.21 0.21 0.20 0.19 0.18 0.19 0.18 0.21 0.23 0.24 0.26 0.25 0.25 0.26 0.26 0.25 0.26 0.26 0.26 0.26 0.26 0.26 0.25 0.24 0.24 0.26 0.28 0.30 0.32 0.33 0.34 0.36 0.35
0.28 0.29 0.30 0.30 0.31 0.30 0.28 0.25 0.22 0.21 0.20 0.20 0.20 0.19 0.19 0.18 0.17 0.21 0.23 0.24 0.26 0.26 0.25 0.26 0.25 0.26 0.26 0.26 0.25 0.26 0.26 0.26 0.25 0.25 0.25 0.27 0.30 0.30 0.30 0.32 0.30 0.32 0.31
0.31 0.30 0.30 0.29 0.27 0.24 0.23 0.23 0.23 0.23 0.22 0.21 0.21 0.21 0.19 0.17 0.18 0.21 0.22 0.23 0.25 0.26 0.25 0.25 0.24 0.23 0.23 0.24 0.24 0.24 0.25 0.25 0.24 0.25 0.25 0.26 0.26 0.27 0.28 0.31 0.31 0.30 0.27
0.31 0.30 0.28 0.27 0.24 0.24 0.24 0.25 0.26 0.24 0.24 0.24 0.24 0.23 0.22 0.20 0.20 0.20 0.22 0.23 0.25 0.25 0.24 0.22 0.22 0.19 0.18 0.19 0.21 0.23 0.24 0.24 0.24 0.25 0.25 0.26 0.25 0.26 0.27 0.28 0.28 0.27 0.26
0.32 0.31 0.29 0.25 0.23 0.23 0.23 0.22 0.19 0.22 0.25 0.25 0.25 0.25 0.23 0.21 0.20 0.20 0.21 0.21 0.22 0.23 0.22 0.22 0.20 0.18 0.17 0.17 0.18 0.18 0.21 0.25 0.25 0.25 0.25 0.25 0.25 0.26 0.26 0.25 0.25 0.25 0.25
0.34 0.32 0.29 0.25 0.23 0.22 0.22 0.22 0.21 0.21 0.20 0.21 0.25 0.25 0.23 0.22 0.20 0.20 0.20 0.20 0.18 0.18 0.19 0.20 0.19 0.18 0.18 0.18 0.18 0.18 0.18 0.19 0.23 0.24 0.24 0.24 0.25 0.25 0.24 0.24 0.24 0.24 0.25
0.32 0.31 0.28 0.25 0.24 0.23 0.22 0.23 0.23 0.22 0.21 0.22 0.23 0.24 0.23 0.21 0.20 0.19 0.20 0.17 0.17 0.16 0.16 0.17 0.20 0.20 0.18 0.17 0.17 0.17 0.18 0.17 0.18 0.21 0.23 0.24 0.24 0.25 0.24 0.25 0.24 0.24 0.24
0.33 0.31 0.26 0.24 0.23 0.21 0.22 0.23 0.22 0.22 0.22 0.22 0.22 0.22 0.22 0.20 0.18 0.17 0.18 0.18 0.17 0.17 0.16 0.15 0.17 0.19 0.18 0.18 0.17 0.16 0.15 0.13 0.14 0.16 0.18 0.21 0.23 0.24 0.24 0.24 0.24 0.24 0.23
0.32 0.28 0.26 0.25 0.23 0.21 0.22 0.22 0.23 0.21 0.21 0.21 0.22 0.23 0.21 0.19 0.19 0.19 0.18 0.17 0.17 0.17 0.17 0.16 0.16 0.17 0.17 0.17 0.18 0.16 0.14 0.12 0.11 0.12 0.14 0.16 0.17 0.18 0.21 0.22 0.22 0.22 0.22
0.28 0.25 0.24 0.23 0.22 0.22 0.23 0.23 0.22 0.22 0.23 0.22 0.22 0.22 0.22 0.20 0.20 0.20 0.19 0.18 0.18 0.19 0.19 0.18 0.17 0.17 0.17 0.17 0.17 0.16 0.15 0.13 0.12 0.11 0.13 0.14 0.14 0.15 0.16 0.16 0.16 0.16 0.16
0.25 0.22 0.22 0.22 0.22 0.23 0.23 0.24 0.21 0.22 0.22 0.22 0.22 0.21 0.21 0.20 0.20 0.20 0.19 0.19 0.19 0.19 0.19 0.18 0.18 0.17 0.18 0.18 0.18 0.17 0.15 0.14 0.14 0.14 0.13 0.14 0.14 0.14 0.14 0.15 0.14 0.15 0.14
0.24 0.23 0.23 0.21 0.21 0.21 0.22 0.22 0.22 0.23 0.22 0.22 0.22 0.22 0.22 0.21 0.20 0.20 0.20 0.20 0.20 0.19 0.19 0.18 0.18 0.17 0.16 0.18 0.19 0.20 0.19 0.17 0.17 0.15 0.16 0.16 0.15 0.14 0.13 0.14 0.14 0.15 0.14
0.27 0.25 0.24 0.23 0.22 0.21 0.22 0.23 0.23 0.22 0.22 0.22 0.22 0.22 0.21 0.21 0.21 0.21 0.20 0.20 0.20 0.19 0.18 0.18 0.18 0.19 0.18 0.17 0.19 0.19 0.17 0.17 0.16 0.17 0.18 0.17 0.15 0.15 0.13 0.14 0.13 0.14 0.13
0.29 0.28 0.28 0.26 0.22 0.22 0.22 0.22 0.22 0.23 0.22 0.22 0.22 0.22 0.22 0.21 0.21 0.22 0.21 0.21 0.20 0.20 0.19 0.19 0.18 0.19 0.19 0.20 0.20 0.20 0.18 0.16 0.16 0.17 0.18 0.17 0.16 0.14 0.14 0.13 0.13 0.13 0.12

GFSGL_prec_pwat_012.txt.gz
Precipitable_Water
0.49 0.45 0.42 0.43 0.44 0.45 0.44 0.46 0.50 0.47 0.45 0.43 0.42 0.38 0.31 0.28 0.27 0.25 0.25 0.25 0.23 0.23 0.24 0.24 0.24 0.25 0.24 0.23 0.22 0.22 0.25 0.29 0.28 0.30 0.34 0.33 0.32 0.34 0.33 0.32 0.32 0.40 0.46
0.43 0.43 0.45 0.48 0.48 0.43 0.45 0.46 0.46 0.49 0.47 0.43 0.41 0.34 0.29 0.27 0.27 0.24 0.22 0.23 0.22 0.21 0.22 0.23 0.23 0.24 0.22 0.21 0.21 0.19 0.18 0.19 0.22 0.21 0.28 0.29 0.29 0.30 0.31 0.31 0.31 0.32 0.38
0.32 0.32 0.35 0.34 0.33 0.38 0.43 0.45 0.47 0.47 0.48 0.49 0.35 0.31 0.28 0.28 0.28 0.26 0.23 0.23 0.23 0.25 0.25 0.24 0.23 0.21 0.19 0.19 0.19 0.20 0.20 0.19 0.21 0.21 0.21 0.25 0.27 0.27 0.26 0.29 0.31 0.32 0.34
0.30 0.30 0.31 0.32 0.34 0.39 0.43 0.44 0.46 0.47 0.43 0.40 0.33 0.30 0.30 0.30 0.27 0.25 0.25 0.25 0.25 0.25 0.25 0.23 0.21 0.20 0.19 0.20 0.21 0.22 0.24 0.23 0.22 0.21 0.22 0.22 0.23 0.23 0.23 0.22 0.23 0.29 0.30
0.29 0.29 0.29 0.28 0.30 0.34 0.36 0.38 0.40 0.40 0.41 0.36 0.33 0.33 0.31 0.28 0.27 0.27 0.26 0.25 0.24 0.22 0.22 0.23 0.23 0.23 0.22 0.23 0.24 0.24 0.26 0.25 0.25 0.24 0.22 0.22 0.20 0.19 0.18 0.20 0.21 0.23 0.26
0.27 0.26 0.27 0.28 0.32 0.32 0.33 0.36 0.40 0.42 0.36 0.40 0.35 0.31 0.28 0.27 0.29 0.28 0.26 0.23 0.22 0.22 0.22 0.24 0.23 0.22 0.22 0.24 0.25 0.25 0.26 0.25 0.24 0.24 0.24 0.22 0.21 0.21 0.21 0.19 0.19 0.19 0.17
0.27 0.27 0.26 0.30 0.31 0.31 0.33 0.36 0.40 0.40 0.41 0.34 0.31 0.30 0.27 0.28 0.27 0.26 0.25 0.24 0.23 0.23 0.23 0.23 0.22 0.23 0.24 0.24 0.24 0.25 0.25 0.25 0.26 0.25 0.23 0.24 0.23 0.22 0.22 0.20 0.19 0.20 0.20
0.25 0.25 0.28 0.30 0.31 0.31 0.33 0.34 0.36 0.40 0.35 0.31 0.31 0.29 0.26 0.25 0.26 0.26 0.25 0.23 0.23 0.23 0.24 0.23 0.23 0.25 0.25 0.25 0.26 0.26 0.25 0.26 0.26 0.25 0.24 0.24 0.24 0.24 0.23 0.22 0.22 0.22 0.24
0.25 0.28 0.31 0.32 0.30 0.30 0.31 0.34 0.35 0.33 0.31 0.32 0.30 0.26 0.24 0.22 0.23 0.23 0.22 0.20 0.21 0.22 0.23 0.25 0.26 0.26 0.26 0.27 0.25 0.23 0.23 0.23 0.26 0.27 0.28 0.28 0.27 0.28 0.28 0.26 0.22 0.21 0.19
0.29 0.30 0.32 0.32 0.32 0.31 0.32 0.33 0.32 0.32 0.33 0.31 0.26 0.23 0.22 0.20 0.20 0.20 0.19 0.21 0.21 0.22 0.24 0.25 0.25 0.25 0.26 0.27 0.25 0.24 0.21 0.21 0.22 0.22 0.23 0.23 0.24 0.24 0.23 0.22 0.21 0.19 0.20
0.29 0.31 0.32 0.31 0.30 0.31 0.31 0.31 0.33 0.33 0.31 0.25 0.22 0.22 0.21 0.20 0.19 0.18 0.19 0.20 0.22 0.23 0.23 0.24 0.25 0.26 0.26 0.25 0.26 0.25 0.23 0.25 0.24 0.24 0.23 0.22 0.22 0.22 0.23 0.24 0.24 0.23 0.21
0.29 0.30 0.29 0.29 0.29 0.30 0.30 0.31 0.31 0.28 0.24 0.22 0.21 0.19 0.21 0.20 0.18 0.18 0.19 0.21 0.23 0.24 0.24 0.25 0.26 0.26 0.26 0.26 0.26 0.26 0.26 0.25 0.25 0.23 0.23 0.23 0.23 0.25 0.27 0.29 0.31 0.31 0.31
0.27 0.28 0.30 0.30 0.30 0.31 0.29 0.27 0.24 0.24 0.22 0.20 0.19 0.18 0.19 0.19 0.18 0.19 0.20 0.21 0.24 0.25 0.26 0.26 0.25 0.26 0.26 0.26 0.25 0.25 0.25 0.24 0.23 0.22 0.22 0.24 0.26 0.29 0.30 0.31 0.33 0.34 0.35
0.27 0.30 0.31 0.30 0.28 0.29 0.27 0.24 0.22 0.22 0.21 0.19 0.18 0.19 0.19 0.18 0.18 0.19 0.20 0.20 0.24 0.24 0.25 0.25 0.25 0.24 0.24 0.25 0.25 0.25 0.25 0.25 0.24 0.23 0.24 0.26 0.28 0.28 0.29 0.31 0.30 0.31 0.31
0.29 0.32 0.32 0.30 0.29 0.26 0.24 0.24 0.24 0.24 0.22 0.20 0.20 0.21 0.19 0.17 0.18 0.21 0.19 0.18 0.22 0.22 0.23 0.24 0.23 0.18 0.18 0.17 0.20 0.23 0.24 0.24 0.24 0.25 0.25 0.25 0.26 0.27 0.28 0.30 0.30 0.30 0.27
0.30 0.33 0.32 0.31 0.29 0.25 0.23 0.23 0.26 0.25 0.24 0.24 0.24 0.23 0.22 0.22 0.21 0.21 0.20 0.19 0.18 0.19 0.19 0.21 0.19 0.17 0.17 0.17 0.17 0.17 0.22 0.23 0.23 0.24 0.24 0.24 0.24 0.25 0.26 0.27 0.27 0.26 0.25
0.32 0.33 0.33 0.32 0.29 0.25 0.23 0.21 0.19 0.22 0.24 0.24 0.24 0.24 0.24 0.22 0.21 0.20 0.19 0.18 0.17 0.16 0.15 0.18 0.19 0.18 0.17 0.17 0.17 0.17 0.16 0.21 0.24 0.23 0.23 0.24 0.24 0.25 0.25 0.24 0.25 0.25 0.25
0.33 0.34 0.33 0.31 0.27 0.25 0.23 0.20 0.20 0.20 0.19 0.21 0.24 0.24 0.24 0.22 0.21 0.19 0.18 0.18 0.16 0.15 0.13 0.15 0.17 0.19 0.18 0.17 0.16 0.16 0.16 0.15 0.18 0.23 0.23 0.23 0.24 0.23 0.23 0.23 0.23 0.23 0.23
0.32 0.33 0.32 0.30 0.26 0.25 0.23 0.21 0.22 0.21 0.21 0.21 0.22 0.23 0.23 0.22 0.21 0.20 0.19 0.17 0.16 0.16 0.14 0.13 0.15 0.17 0.17 0.17 0.17 0.15 0.14 0.12 0.14 0.17 0.22 0.23 0.23 0.23 0.23 0.24 0.24 0.23 0.22
0.33 0.33 0.31 0.26 0.25 0.24 0.23 0.22 0.21 0.21 0.21 0.21 0.21 0.21 0.22 0.20 0.18 0.18 0.19 0.18 0.16 0.16 0.16 0.15 0.14 0.15 0.16 0.16 0.17 0.16 0.14 0.12 0.11 0.13 0.16 0.18 0.21 0.23 0.23 0.23 0.23 0.23 0.23
0.33 0.32 0.28 0.25 0.25 0.24 0.23 0.21 0.22 0.22 0.20 0.21 0.22 0.23 0.22 0.19 0.18 0.18 0.18 0.18 0.17 0.16 0.17 0.17 0.16 0.15 0.15 0.15 0.16 0.15 0.15 0.14 0.12 0.12 0.13 0.14 0.15 0.16 0.18 0.18 0.20 0.20 0.21
0.33 0.30 0.25 0.23 0.22 0.22 0.22 0.23 0.23 0.22 0.21 0.21 0.22 0.23 0.22 0.20 0.19 0.19 0.19 0.19 0.18 0.18 0.18 0.17 0.17 0.16 0.16 0.16 0.17 0.17 0.16 0.14 0.14 0.13 0.13 0.14 0.14 0.13 0.14 0.14 0.15 0.15 0.14
0.35 0.29 0.24 0.23 0.23 0.21 0.21 0.22 0.23 0.22 0.21 0.22 0.21 0.21 0.22 0.21 0.20 0.20 0.19 0.19 0.19 0.19 0.19 0.18 0.17 0.16 0.16 0.15 0.16 0.18 0.18 0.17 0.17 0.16 0.15 0.15 0.14 0.13 0.13 0.13 0.13 0.14 0.13
0.34 0.28 0.25 0.24 0.24 0.22 0.21 0.21 0.22 0.23 0.22 0.21 0.21 0.22 0.22 0.21 0.20 0.20 0.20 0.20 0.20 0.20 0.20 0.19 0.18 0.17 0.17 0.17 0.17 0.17 0.17 0.17 0.17 0.17 0.18 0.17 0.15 0.15 0.13 0.13 0.13 0.13 0.13
0.33 0.29 0.27 0.26 0.26 0.25 0.24 0.22 0.22 0.23 0.22 0.22 0.22 0.21 0.22 0.22 0.21 0.21 0.21 0.21 0.21 0.20 0.20 0.20 0.19 0.18 0.17 0.18 0.19 0.19 0.19 0.17 0.16 0.17 0.18 0.18 0.17 0.15 0.14 0.14 0.13 0.13 0.13
0.34 0.32 0.30 0.30 0.30 0.29 0.27 0.23 0.22 0.23 0.23 0.23 0.22 0.22 0.22 0.22 0.21 0.21 0.22 0.22 0.21 0.21 0.21 0.20 0.19 0.18 0.17 0.18 0.19 0.20 0.19 0.18 0.17 0.18 0.20 0.19 0.17 0.15 0.14 0.14 0.14 0.13 0.13

GFSGL_prec_pwat_015.txt.gz
Precipitable_Water
0.49 0.44 0.40 0.40 0.40 0.37 0.37 0.39 0.43 0.47 0.48 0.47 0.47 0.44 0.43 0.35 0.33 0.30 0.27 0.26 0.23 0.22 0.23 0.24 0.24 0.24 0.23 0.23 0.22 0.21 0.20 0.20 0.17 0.18 0.21 0.27 0.30 0.28 0.31 0.33 0.34 0.33 0.35
0.37 0.35 0.33 0.32 0.32 0.32 0.34 0.37 0.42 0.40 0.39 0.40 0.41 0.42 0.37 0.32 0.30 0.29 0.27 0.26 0.23 0.22 0.24 0.25 0.24 0.24 0.22 0.21 0.19 0.17 0.17 0.19 0.19 0.17 0.19 0.20 0.22 0.25 0.28 0.29 0.30 0.31 0.32
0.35 0.34 0.32 0.30 0.27 0.26 0.26 0.27 0.29 0.30 0.33 0.38 0.41 0.38 0.31 0.30 0.31 0.30 0.26 0.24 0.25 0.25 0.26 0.25 0.22 0.20 0.18 0.19 0.20 0.20 0.21 0.22 0.23 0.22 0.19 0.21 0.23 0.24 0.22 0.24 0.25 0.26 0.27
0.33 0.31 0.29 0.28 0.27 0.28 0.29 0.29 0.29 0.33 0.39 0.39 0.39 0.36 0.32 0.34 0.31 0.28 0.25 0.26 0.26 0.26 0.24 0.22 0.21 0.21 0.21 0.21 0.20 0.20 0.23 0.24 0.25 0.24 0.24 0.23 0.24 0.25 0.23 0.19 0.18 0.20 0.21
0.30 0.29 0.27 0.28 0.30 0.30 0.29 0.30 0.33 0.36 0.42 0.44 0.36 0.35 0.37 0.32 0.31 0.26 0.27 0.26 0.24 0.22 0.23 0.22 0.23 0.23 0.24 0.23 0.22 0.23 0.24 0.23 0.23 0.24 0.23 0.24 0.24 0.23 0.21 0.21 0.18 0.18 0.18
0.30 0.28 0.27 0.28 0.30 0.30 0.31 0.31 0.33 0.36 0.38 0.35 0.39 0.34 0.31 0.31 0.30 0.28 0.27 0.25 0.24 0.22 0.21 0.22 0.23 0.23 0.23 0.24 0.26 0.26 0.26 0.24 0.23 0.23 0.22 0.22 0.24 0.24 0.24 0.22 0.20 0.17 0.14
0.28 0.27 0.28 0.30 0.30 0.30 0.31 0.31 0.31 0.33 0.36 0.37 0.32 0.31 0.31 0.30 0.27 0.26 0.26 0.24 0.21 0.20 0.20 0.21 0.22 0.24 0.25 0.26 0.26 0.26 0.27 0.27 0.27 0.25 0.22 0.23 0.23 0.25 0.26 0.23 0.20 0.18 0.17
0.26 0.28 0.30 0.30 0.28 0.30 0.30 0.30 0.32 0.34 0.35 0.33 0.32 0.32 0.31 0.26 0.24 0.23 0.23 0.20 0.19 0.18 0.20 0.22 0.24 0.25 0.26 0.26 0.26 0.25 0.24 0.25 0.25 0.25 0.26 0.26 0.24 0.25 0.25 0.24 0.22 0.21 0.21
0.26 0.27 0.28 0.28 0.29 0.30 0.28 0.29 0.33 0.32 0.31 0.32 0.32 0.31 0.25 0.21 0.20 0.21 0.20 0.19 0.18 0.18 0.22 0.24 0.25 0.25 0.26 0.27 0.25 0.24 0.24 0.23 0.25 0.25 0.25 0.26 0.29 0.29 0.29 0.26 0.22 0.20 0.17
0.24 0.26 0.29 0.29 0.28 0.27 0.28 0.29 0.30 0.32 0.33 0.33 0.29 0.25 0.22 0.19 0.20 0.19 0.19 0.18 0.17 0.19 0.22 0.24 0.25 0.26 0.27 0.27 0.25 0.24 0.22 0.22 0.23 0.24 0.24 0.24 0.24 0.24 0.25 0.25 0.22 0.18 0.18
0.26 0.27 0.28 0.28 0.28 0.28 0.27 0.29 0.30 0.31 0.29 0.25 0.24 0.23 0.21 0.20 0.19 0.19 0.19 0.18 0.18 0.19 0.22 0.23 0.25 0.27 0.27 0.27 0.26 0.25 0.24 0.25 0.24 0.24 0.24 0.24 0.24 0.23 0.22 0.22 0.22 0.20 0.17
0.26 0.26 0.28 0.29 0.30 0.29 0.28 0.29 0.29 0.27 0.24 0.22 0.21 0.20 0.21 0.20 0.20 0.19 0.20 0.20 0.20 0.20 0.21 0.24 0.26 0.26 0.26 0.26 0.26 0.26 0.25 0.25 0.24 0.23 0.22 0.22 0.23 0.24 0.26 0.27 0.28 0.28 0.28
0.25 0.26 0.29 0.31 0.31 0.30 0.28 0.27 0.25 0.24 0.22 0.22 0.20 0.19 0.19 0.20 0.20 0.20 0.20 0.20 0.20 0.18 0.21 0.24 0.25 0.23 0.21 0.19 0.23 0.25 0.25 0.24 0.23 0.21 0.21 0.22 0.24 0.27 0.28 0.29 0.30 0.31 0.32
0.24 0.26 0.30 0.30 0.31 0.30 0.30 0.28 0.24 0.22 0.22 0.21 0.19 0.19 0.20 0.20 0.19 0.20 0.20 0.18 0.18 0.17 0.18 0.22 0.23 0.19 0.19 0.19 0.19 0.23 0.24 0.24 0.23 0.23 0.23 0.25 0.27 0.27 0.27 0.29 0.28 0.30 0.29
0.26 0.28 0.30 0.33 0.31 0.29 0.29 0.26 0.24 0.25 0.24 0.22 0.20 0.21 0.20 0.19 0.19 0.21 0.19 0.18 0.17 0.16 0.14 0.18 0.19 0.17 0.17 0.18 0.18 0.18 0.21 0.23 0.22 0.23 0.23 0.24 0.25 0.26 0.27 0.29 0.30 0.30 0.28
0.26 0.28 0.31 0.32 0.32 0.31 0.29 0.26 0.27 0.25 0.25 0.25 0.24 0.23 0.23 0.23 0.22 0.21 0.19 0.17 0.17 0.16 0.13 0.13 0.16 0.18 0.17 0.17 0.16 0.16 0.16 0.20 0.22 0.23 0.23 0.23 0.23 0.24 0.25 0.26 0.27 0.26 0.25
0.27 0.30 0.31 0.32 0.32 0.31 0.28 0.24 0.21 0.22 0.25 0.25 0.24 0.24 0.24 0.23 0.22 0.20 0.19 0.17 0.17 0.16 0.12 0.12 0.13 0.15 0.16 0.18 0.17 0.16 0.15 0.14 0.20 0.22 0.22 0.22 0.23 0.23 0.23 0.24 0.24 0.25 0.24
0.30 0.31 0.32 0.32 0.32 0.30 0.26 0.24 0.22 0.19 0.19 0.21 0.24 0.24 0.25 0.23 0.21 0.20 0.19 0.18 0.15 0.16 0.15 0.13 0.12 0.13 0.14 0.16 0.17 0.16 0.13 0.12 0.14 0.19 0.22 0.22 0.22 0.22 0.22 0.22 0.22 0.22 0.22
0.31 0.32 0.33 0.32 0.31 0.29 0.26 0.24 0.23 0.22 0.20 0.21 0.22 0.23 0.24 0.23 0.21 0.20 0.19 0.17 0.15 0.14 0.15 0.15 0.14 0.13 0.13 0.14 0.16 0.16 0.15 0.13 0.12 0.14 0.17 0.21 0.22 0.22 0.22 0.22 0.22 0.22 0.22
0.32 0.34 0.34 0.32 0.28 0.24 0.25 0.23 0.22 0.22 0.20 0.20 0.20 0.21 0.22 0.21 0.19 0.18 0.18 0.18 0.16 0.15 0.15 0.15 0.16 0.15 0.14 0.13 0.13 0.15 0.15 0.14 0.13 0.12 0.13 0.14 0.16 0.20 0.22 0.22 0.22 0.21 0.21
0.33 0.33 0.34 0.31 0.25 0.24 0.23 0.22 0.23 0.22 0.20 0.20 0.20 0.23 0.23 0.21 0.19 0.18 0.18 0.18 0.17 0.17 0.16 0.15 0.15 0.15 0.14 0.14 0.15 0.15 0.15 0.15 0.15 0.14 0.14 0.14 0.13 0.12 0.14 0.15 0.17 0.18 0.19
0.32 0.33 0.34 0.31 0.25 0.24 0.23 0.22 0.22 0.22 0.22 0.21 0.20 0.22 0.22 0.22 0.20 0.19 0.19 0.18 0.19 0.18 0.18 0.18 0.16 0.15 0.15 0.14 0.14 0.14 0.15 0.15 0.16 0.16 0.15 0.15 0.14 0.13 0.12 0.13 0.13 0.13 0.13
0.32 0.33 0.34 0.31 0.26 0.24 0.24 0.24 0.22 0.22 0.22 0.22 0.21 0.21 0.21 0.21 0.21 0.21 0.20 0.20 0.20 0.19 0.19 0.19 0.18 0.17 0.16 0.16 0.15 0.16 0.15 0.15 0.15 0.16 0.16 0.17 0.16 0.15 0.13 0.13 0.12 0.12 0.12
0.32 0.32 0.33 0.31 0.27 0.25 0.25 0.26 0.24 0.23 0.22 0.22 0.22 0.22 0.21 0.21 0.22 0.21 0.21 0.21 0.21 0.20 0.20 0.20 0.19 0.18 0.17 0.16 0.16 0.17 0.18 0.17 0.16 0.15 0.16 0.17 0.17 0.16 0.15 0.14 0.13 0.12 0.12
0.32 0.32 0.32 0.30 0.29 0.27 0.28 0.28 0.28 0.26 0.24 0.23 0.23 0.23 0.23 0.22 0.22 0.22 0.22 0.22 0.22 0.21 0.20 0.21 0.20 0.19 0.18 0.16 0.16 0.17 0.18 0.18 0.16 0.16 0.18 0.18 0.18 0.17 0.15 0.15 0.14 0.13 0.13
0.31 0.31 0.32 0.32 0.31 0.30 0.30 0.30 0.30 0.30 0.28 0.25 0.24 0.24 0.24 0.22 0.22 0.22 0.22 0.22 0.22 0.22 0.22 0.22 0.21 0.20 0.18 0.17 0.17 0.17 0.17 0.17 0.17 0.17 0.18 0.18 0.17 0.17 0.16 0.16 0.15 0.15 0.14

GFSGL_prec_pwat_018.txt.gz
Precipitable_Water
0.49 0.42 0.39 0.37 0.35 0.32 0.29 0.26 0.26 0.27 0.30 0.34 0.35 0.39 0.40 0.38 0.37 0.30 0.29 0.30 0.28 0.27 0.24 0.23 0.22 0.24 0.23 0.23 0.23 0.21 0.19 0.18 0.16 0.16 0.19 0.20 0.20 0.20 0.23 0.26 0.29 0.30 0.33
0.43 0.41 0.38 0.35 0.33 0.30 0.27 0.27 0.28 0.25 0.28 0.33 0.36 0.38 0.38 0.39 0.35 0.30 0.30 0.29 0.27 0.23 0.23 0.24 0.23 0.24 0.22 0.20 0.19 0.19 0.20 0.21 0.19 0.18 0.20 0.20 0.21 0.22 0.27 0.25 0.24 0.28 0.29
0.42 0.39 0.36 0.34 0.31 0.27 0.26 0.27 0.27 0.28 0.30 0.33 0.36 0.39 0.39 0.34 0.30 0.33 0.31 0.29 0.25 0.25 0.25 0.24 0.22 0.22 0.20 0.20 0.21 0.21 0.22 0.21 0.22 0.23 0.21 0.24 0.24 0.25 0.23 0.26 0.24 0.22 0.24
0.39 0.36 0.34 0.32 0.28 0.28 0.29 0.30 0.30 0.31 0.31 0.34 0.41 0.41 0.35 0.33 0.34 0.33 0.30 0.29 0.25 0.25 0.24 0.23 0.22 0.21 0.20 0.22 0.23 0.23 0.23 0.23 0.24 0.23 0.22 0.25 0.26 0.26 0.27 0.24 0.23 0.23 0.20
0.36 0.35 0.32 0.30 0.31 0.31 0.32 0.31 0.30 0.32 0.34 0.38 0.38 0.37 0.36 0.34 0.33 0.31 0.32 0.27 0.24 0.23 0.23 0.21 0.21 0.21 0.24 0.25 0.24 0.24 0.25 0.24 0.24 0.23 0.22 0.23 0.23 0.23 0.24 0.27 0.25 0.23 0.22
0.35 0.32 0.30 0.30 0.31 0.31 0.30 0.29 0.31 0.33 0.34 0.36 0.35 0.35 0.33 0.32 0.33 0.34 0.29 0.24 0.22 0.20 0.18 0.18 0.18 0.21 0.23 0.26 0.26 0.26 0.27 0.25 0.23 0.22 0.21 0.20 0.20 0.22 0.26 0.25 0.25 0.23 0.19
0.33 0.28 0.27 0.30 0.29 0.28 0.29 0.29 0.30 0.32 0.34 0.33 0.32 0.31 0.31 0.32 0.33 0.27 0.24 0.20 0.18 0.18 0.17 0.17 0.18 0.23 0.25 0.25 0.26 0.27 0.26 0.26 0.26 0.25 0.22 0.22 0.22 0.23 0.24 0.24 0.25 0.24 0.22
0.27 0.25 0.27 0.28 0.27 0.27 0.28 0.28 0.28 0.32 0.33 0.32 0.31 0.31 0.31 0.29 0.25 0.22 0.21 0.19 0.18 0.18 0.18 0.19 0.20 0.24 0.25 0.26 0.27 0.26 0.25 0.25 0.26 0.25 0.24 0.24 0.24 0.27 0.26 0.25 0.24 0.24 0.25
0.24 0.25 0.27 0.28 0.25 0.26 0.25 0.27 0.28 0.30 0.29 0.31 0.31 0.30 0.26 0.22 0.22 0.20 0.19 0.18 0.17 0.17 0.19 0.20 0.22 0.24 0.26 0.27 0.26 0.25 0.24 0.24 0.26 0.26 0.26 0.26 0.25 0.26 0.28 0.27 0.22 0.21 0.19
0.26 0.27 0.27 0.26 0.26 0.25 0.27 0.27 0.28 0.29 0.30 0.30 0.27 0.24 0.24 0.21 0.20 0.20 0.20 0.19 0.17 0.17 0.19 0.19 0.22 0.25 0.26 0.27 0.26 0.24 0.22 0.23 0.23 0.24 0.25 0.25 0.26 0.25 0.24 0.25 0.23 0.21 0.21
0.27 0.25 0.24 0.26 0.27 0.29 0.29 0.28 0.28 0.29 0.29 0.26 0.24 0.24 0.22 0.20 0.19 0.20 0.21 0.19 0.18 0.18 0.17 0.17 0.22 0.25 0.24 0.24 0.22 0.23 0.24 0.25 0.24 0.24 0.24 0.24 0.25 0.26 0.25 0.24 0.22 0.21 0.19
0.25 0.24 0.23 0.26 0.28 0.30 0.30 0.28 0.28 0.28 0.26 0.23 0.22 0.21 0.21 0.21 0.20 0.21 0.21 0.20 0.19 0.17 0.15 0.17 0.22 0.23 0.20 0.20 0.20 0.22 0.25 0.25 0.24 0.22 0.22 0.21 0.22 0.23 0.26 0.27 0.27 0.26 0.26
0.24 0.23 0.24 0.27 0.29 0.31 0.29 0.28 0.28 0.27 0.24 0.22 0.22 0.20 0.20 0.21 0.21 0.21 0.21 0.19 0.18 0.17 0.15 0.16 0.19 0.19 0.19 0.19 0.21 0.21 0.22 0.24 0.23 0.22 0.21 0.22 0.24 0.25 0.27 0.27 0.29 0.30 0.30
0.24 0.24 0.25 0.27 0.29 0.31 0.30 0.29 0.28 0.25 0.23 0.22 0.21 0.20 0.20 0.20 0.20 0.21 0.21 0.18 0.17 0.17 0.15 0.14 0.15 0.18 0.18 0.18 0.19 0.19 0.18 0.23 0.22 0.22 0.22 0.24 0.26 0.26 0.26 0.28 0.27 0.28 0.27
0.26 0.26 0.25 0.28 0.31 0.30 0.29 0.29 0.29 0.27 0.25 0.22 0.22 0.21 0.20 0.19 0.21 0.22 0.20 0.18 0.16 0.17 0.14 0.13 0.12 0.13 0.15 0.17 0.17 0.17 0.17 0.17 0.22 0.22 0.22 0.23 0.24 0.25 0.26 0.28 0.28 0.28 0.26
0.25 0.26 0.27 0.29 0.30 0.31 0.29 0.29 0.32 0.28 0.25 0.25 0.25 0.24 0.23 0.23 0.23 0.22 0.20 0.18 0.16 0.16 0.13 0.12 0.12 0.11 0.12 0.15 0.16 0.15 0.13 0.14 0.18 0.22 0.22 0.22 0.22 0.23 0.24 0.26 0.27 0.26 0.26
0.26 0.28 0.29 0.29 0.30 0.30 0.30 0.28 0.23 0.25 0.25 0.24 0.25 0.25 0.24 0.24 0.24 0.22 0.19 0.18 0.17 0.15 0.14 0.12 0.12 0.12 0.12 0.12 0.15 0.16 0.14 0.12 0.15 0.18 0.22 0.22 0.22 0.22 0.22 0.22 0.23 0.23 0.23
0.29 0.30 0.30 0.30 0.31 0.31 0.31 0.29 0.26 0.23 0.20 0.21 0.23 0.24 0.24 0.25 0.24 0.22 0.20 0.18 0.16 0.15 0.14 0.14 0.13 0.12 0.13 0.12 0.13 0.14 0.15 0.14 0.13 0.15 0.17 0.21 0.21 0.21 0.21 0.21 0.21 0.21 0.21
0.29 0.30 0.31 0.32 0.32 0.33 0.31 0.27 0.25 0.23 0.22 0.22 0.21 0.23 0.23 0.24 0.24 0.22 0.20 0.17 0.16 0.15 0.14 0.14 0.14 0.14 0.13 0.13 0.13 0.13 0.13 0.14 0.14 0.14 0.14 0.14 0.17 0.20 0.21 0.21 0.21 0.20 0.20
0.30 0.31 0.31 0.32 0.32 0.32 0.28 0.24 0.24 0.23 0.22 0.21 0.20 0.21 0.22 0.22 0.21 0.20 0.19 0.18 0.17 0.16 0.16 0.15 0.15 0.14 0.13 0.12 0.13 0.14 0.14 0.14 0.14 0.15 0.15 0.15 0.13 0.13 0.15 0.19 0.20 0.19 0.19
0.28 0.30 0.31 0.31 0.32 0.31 0.26 0.24 0.24 0.23 0.21 0.21 0.20 0.22 0.22 0.21 0.20 0.20 0.20 0.19 0.18 0.17 0.17 0.17 0.16 0.15 0.14 0.13 0.13 0.12 0.12 0.13 0.13 0.14 0.16 0.17 0.16 0.12 0.12 0.13 0.13 0.15 0.16
0.29 0.29 0.29 0.30 0.32 0.32 0.26 0.24 0.25 0.24 0.22 0.21 0.22 0.23 0.23 0.21 0.20 0.20 0.20 0.20 0.20 0.19 0.19 0.18 0.18 0.17 0.16 0.15 0.14 0.13 0.13 0.13 0.13 0.13 0.13 0.16 0.17 0.17 0.14 0.12 0.12 0.12 0.12
0.29 0.29 0.29 0.30 0.32 0.32 0.29 0.25 0.24 0.26 0.26 0.23 0.22 0.22 0.22 0.21 0.20 0.20 0.21 0.21 0.22 0.21 0.21 0.20 0.19 0.19 0.18 0.17 0.15 0.14 0.14 0.14 0.15 0.14 0.13 0.14 0.16 0.17 0.16 0.15 0.13 0.11 0.11
0.29 0.29 0.29 0.29 0.30 0.30 0.29 0.27 0.26 0.27 0.28 0.27 0.26 0.24 0.22 0.22 0.22 0.21 0.22 0.21 0.21 0.22 0.22 0.21 0.20 0.20 0.19 0.19 0.17 0.15 0.16 0.16 0.16 0.15 0.15 0.16 0.16 0.17 0.16 0.16 0.15 0.14 0.13
0.31 0.30 0.29 0.28 0.29 0.30 0.30 0.29 0.28 0.28 0.29 0.29 0.29 0.29 0.26 0.25 0.24 0.23 0.23 0.23 0.22 0.22 0.22 0.22 0.22 0.22 0.21 0.20 0.18 0.16 0.16 0.17 0.16 0.15 0.16 0.17 0.17 0.16 0.16 0.16 0.16 0.15 0.15
0.31 0.31 0.30 0.30 0.30 0.31 0.31 0.30 0.30 0.30 0.30 0.31 0.31 0.31 0.30 0.29 0.27 0.26 0.24 0.23 0.22 0.21 0.22 0.23 0.23 0.23 0.22 0.21 0.19 0.17 0.16 0.16 0.16 0.16 0.16 0.16 0.16 0.16 0.16 0.15 0.17 0.16 0.16

GFSGL_prec_pwat_021.txt.gz
Precipitable_Water
0.57 0.51 0.42 0.41 0.41 0.39 0.33 0.29 0.29 0.29 0.28 0.28 0.31 0.34 0.37 0.37 0.40 0.40 0.37 0.31 0.30 0.32 0.31 0.28 0.24 0.25 0.24 0.25 0.25 0.22 0.20 0.19 0.17 0.17 0.20 0.21 0.21 0.22 0.23 0.25 0.23 0.25 0.27
0.50 0.44 0.42 0.41 0.39 0.33 0.30 0.31 0.32 0.30 0.30 0.30 0.32 0.34 0.35 0.37 0.41 0.36 0.30 0.32 0.33 0.31 0.30 0.26 0.24 0.24 0.23 0.23 0.22 0.20 0.21 0.22 0.21 0.18 0.20 0.21 0.24 0.25 0.25 0.26 0.25 0.29 0.27
0.45 0.41 0.40 0.38 0.35 0.31 0.34 0.34 0.32 0.30 0.30 0.32 0.33 0.34 0.39 0.43 0.37 0.32 0.32 0.33 0.31 0.31 0.29 0.24 0.23 0.23 0.21 0.20 0.20 0.21 0.23 0.24 0.24 0.22 0.21 0.24 0.24 0.24 0.27 0.28 0.27 0.27 0.29
0.41 0.40 0.38 0.37 0.33 0.35 0.35 0.34 0.32 0.31 0.31 0.32 0.35 0.36 0.37 0.35 0.36 0.34 0.33 0.32 0.32 0.30 0.24 0.23 0.22 0.20 0.18 0.19 0.21 0.23 0.24 0.25 0.24 0.24 0.22 0.22 0.23 0.25 0.26 0.25 0.25 0.27 0.26
0.39 0.39 0.37 0.33 0.35 0.35 0.34 0.32 0.31 0.31 0.32 0.33 0.34 0.34 0.34 0.36 0.35 0.35 0.34 0.32 0.28 0.22 0.20 0.18 0.18 0.18 0.19 0.21 0.23 0.24 0.24 0.24 0.23 0.23 0.21 0.20 0.20 0.21 0.21 0.23 0.24 0.27 0.29
0.39 0.37 0.34 0.32 0.32 0.32 0.30 0.30 0.29 0.30 0.31 0.34 0.33 0.32 0.32 0.32 0.33 0.33 0.31 0.25 0.20 0.18 0.16 0.17 0.17 0.18 0.20 0.23 0.25 0.26 0.26 0.25 0.24 0.22 0.21 0.21 0.22 0.22 0.23 0.22 0.25 0.24 0.22
0.38 0.35 0.30 0.29 0.29 0.29 0.29 0.28 0.28 0.28 0.30 0.33 0.32 0.30 0.31 0.31 0.30 0.28 0.23 0.21 0.18 0.17 0.17 0.17 0.17 0.19 0.21 0.24 0.25 0.26 0.28 0.27 0.26 0.25 0.22 0.21 0.20 0.21 0.23 0.23 0.23 0.24 0.23
0.35 0.29 0.28 0.29 0.28 0.28 0.27 0.27 0.27 0.28 0.29 0.31 0.29 0.30 0.29 0.28 0.25 0.23 0.20 0.19 0.18 0.18 0.18 0.18 0.18 0.19 0.21 0.24 0.26 0.26 0.26 0.25 0.26 0.26 0.25 0.24 0.24 0.25 0.24 0.25 0.25 0.24 0.25
0.28 0.27 0.29 0.29 0.26 0.25 0.27 0.27 0.28 0.27 0.29 0.29 0.29 0.28 0.26 0.23 0.23 0.21 0.19 0.19 0.19 0.18 0.18 0.19 0.19 0.19 0.22 0.25 0.24 0.22 0.19 0.23 0.26 0.26 0.26 0.26 0.26 0.27 0.27 0.25 0.23 0.22 0.20
0.28 0.29 0.29 0.27 0.25 0.25 0.27 0.28 0.28 0.27 0.28 0.29 0.28 0.28 0.24 0.23 0.21 0.20 0.20 0.21 0.19 0.18 0.18 0.17 0.18 0.20 0.23 0.22 0.20 0.20 0.18 0.23 0.23 0.24 0.24 0.25 0.26 0.27 0.27 0.25 0.23 0.22 0.21
0.31 0.29 0.27 0.25 0.25 0.27 0.27 0.29 0.28 0.27 0.28 0.28 0.28 0.26 0.24 0.23 0.21 0.20 0.21 0.21 0.19 0.17 0.16 0.15 0.17 0.20 0.19 0.20 0.21 0.21 0.21 0.23 0.24 0.24 0.23 0.23 0.23 0.25 0.27 0.28 0.26 0.23 0.20
0.28 0.26 0.25 0.24 0.26 0.26 0.28 0.29 0.29 0.28 0.27 0.27 0.25 0.24 0.24 0.23 0.21 0.20 0.21 0.21 0.19 0.17 0.16 0.15 0.16 0.17 0.18 0.19 0.20 0.21 0.20 0.21 0.24 0.23 0.23 0.22 0.22 0.23 0.25 0.27 0.29 0.28 0.27
0.26 0.24 0.24 0.25 0.26 0.28 0.28 0.29 0.28 0.28 0.27 0.26 0.23 0.22 0.22 0.23 0.22 0.21 0.22 0.21 0.19 0.17 0.18 0.15 0.14 0.14 0.15 0.18 0.19 0.19 0.19 0.18 0.23 0.22 0.22 0.23 0.24 0.26 0.28 0.28 0.29 0.29 0.29
0.24 0.25 0.27 0.26 0.25 0.28 0.30 0.30 0.28 0.27 0.27 0.25 0.22 0.21 0.21 0.21 0.21 0.22 0.22 0.21 0.19 0.17 0.17 0.15 0.14 0.13 0.13 0.15 0.17 0.19 0.17 0.17 0.20 0.22 0.22 0.24 0.26 0.26 0.26 0.28 0.27 0.28 0.27
0.26 0.26 0.27 0.26 0.27 0.28 0.30 0.29 0.28 0.30 0.29 0.25 0.23 0.22 0.21 0.20 0.22 0.22 0.22 0.20 0.18 0.17 0.15 0.14 0.13 0.13 0.12 0.13 0.14 0.16 0.16 0.15 0.18 0.22 0.23 0.22 0.24 0.24 0.25 0.27 0.27 0.28 0.26
0.25 0.27 0.27 0.27 0.28 0.28 0.28 0.28 0.31 0.31 0.30 0.27 0.24 0.24 0.25 0.24 0.24 0.23 0.23 0.20 0.18 0.17 0.14 0.13 0.12 0.13 0.13 0.13 0.13 0.13 0.15 0.15 0.15 0.19 0.22 0.22 0.22 0.22 0.24 0.25 0.26 0.26 0.25
0.26 0.27 0.28 0.28 0.28 0.28 0.28 0.28 0.27 0.30 0.29 0.27 0.26 0.25 0.25 0.25 0.24 0.24 0.23 0.21 0.18 0.17 0.14 0.13 0.13 0.13 0.13 0.13 0.13 0.13 0.13 0.14 0.16 0.16 0.17 0.21 0.22 0.22 0.22 0.22 0.23 0.24 0.24
0.27 0.28 0.28 0.28 0.28 0.29 0.29 0.30 0.31 0.27 0.25 0.24 0.25 0.24 0.23 0.24 0.25 0.24 0.23 0.21 0.18 0.17 0.15 0.14 0.13 0.13 0.13 0.13 0.13 0.13 0.14 0.14 0.14 0.15 0.16 0.14 0.16 0.21 0.21 0.21 0.21 0.21 0.21
0.28 0.28 0.29 0.30 0.30 0.30 0.31 0.31 0.30 0.25 0.24 0.23 0.23 0.24 0.24 0.24 0.24 0.25 0.23 0.21 0.18 0.17 0.17 0.16 0.15 0.15 0.14 0.13 0.13 0.12 0.13 0.14 0.14 0.14 0.16 0.17 0.14 0.13 0.15 0.20 0.21 0.21 0.21
0.29 0.30 0.29 0.28 0.29 0.29 0.30 0.30 0.29 0.25 0.24 0.24 0.22 0.22 0.23 0.22 0.21 0.21 0.22 0.21 0.20 0.19 0.18 0.17 0.17 0.17 0.16 0.15 0.14 0.13 0.12 0.13 0.13 0.13 0.14 0.17 0.18 0.16 0.12 0.13 0.15 0.16 0.18
0.29 0.28 0.28 0.29 0.27 0.28 0.29 0.30 0.29 0.24 0.24 0.24 0.23 0.24 0.23 0.21 0.22 0.22 0.21 0.21 0.20 0.20 0.20 0.19 0.19 0.18 0.18 0.17 0.15 0.14 0.13 0.13 0.13 0.13 0.13 0.14 0.17 0.18 0.17 0.14 0.13 0.13 0.14
0.28 0.27 0.27 0.27 0.28 0.28 0.29 0.31 0.30 0.25 0.24 0.25 0.27 0.26 0.25 0.23 0.23 0.22 0.22 0.21 0.21 0.21 0.22 0.22 0.20 0.20 0.19 0.18 0.17 0.15 0.13 0.13 0.14 0.14 0.13 0.13 0.15 0.16 0.17 0.17 0.15 0.12 0.12
0.31 0.29 0.28 0.28 0.29 0.29 0.29 0.30 0.30 0.29 0.27 0.26 0.28 0.29 0.28 0.25 0.23 0.23 0.22 0.22 0.23 0.23 0.23 0.22 0.22 0.21 0.21 0.21 0.20 0.18 0.15 0.14 0.15 0.15 0.13 0.14 0.15 0.16 0.16 0.16 0.16 0.15 0.13
0.31 0.30 0.28 0.28 0.29 0.29 0.29 0.29 0.30 0.30 0.29 0.28 0.28 0.29 0.29 0.30 0.29 0.25 0.25 0.25 0.24 0.24 0.24 0.22 0.22 0.22 0.22 0.22 0.21 0.20 0.17 0.16 0.16 0.16 0.14 0.14 0.16 0.16 0.16 0.15 0.16 0.16 0.16
0.29 0.29 0.29 0.29 0.29 0.29 0.29 0.30 0.30 0.30 0.29 0.29 0.29 0.29 0.30 0.31 0.31 0.31 0.30 0.27 0.26 0.25 0.24 0.23 0.23 0.22 0.23 0.23 0.22 0.21 0.19 0.17 0.16 0.16 0.15 0.15 0.16 0.15 0.15 0.15 0.16 0.16 0.16
0.29 0.30 0.30 0.30 0.29 0.29 0.29 0.28 0.28 0.27 0.26 0.26 0.27 0.27 0.29 0.30 0.31 0.32 0.32 0.31 0.29 0.27 0.26 0.25 0.23 0.23 0.23 0.24 0.24 0.22 0.20 0.17 0.16 0.16 0.15 0.15 0.15 0.15 0.15 0.15 0.15 0.16 0.16

GFSGL_prec_pwat_024.txt.gz
Precipitable_Water
0.68 0.61 0.54 0.50 0.46 0.45 0.40 0.36 0.36 0.36 0.35 0.33 0.33 0.32 0.34 0.37 0.38 0.37 0.38 0.41 0.36 0.33 0.35 0.35 0.33 0.34 0.30 0.25 0.25 0.25 0.23 0.22 0.18 0.18 0.22 0.24 0.25 0.25 0.26 0.28 0.28 0.28 0.27
0.65 0.52 0.50 0.46 0.45 0.41 0.37 0.37 0.39 0.38 0.36 0.33 0.35 0.35 0.35 0.36 0.39 0.43 0.39 0.33 0.33 0.33 0.34 0.33 0.33 0.30 0.24 0.24 0.24 0.22 0.21 0.21 0.21 0.19 0.23 0.24 0.24 0.25 0.26 0.27 0.26 0.28 0.28
0.52 0.50 0.46 0.44 0.42 0.37 0.38 0.40 0.41 0.39 0.34 0.33 0.35 0.35 0.34 0.36 0.35 0.36 0.38 0.35 0.35 0.34 0.34 0.33 0.28 0.23 0.21 0.21 0.20 0.20 0.21 0.22 0.25 0.24 0.23 0.25 0.25 0.26 0.25 0.26 0.27 0.29 0.29
0.50 0.46 0.43 0.43 0.40 0.37 0.39 0.40 0.39 0.37 0.33 0.33 0.35 0.34 0.34 0.33 0.35 0.34 0.34 0.36 0.35 0.34 0.32 0.25 0.21 0.19 0.19 0.19 0.18 0.20 0.21 0.24 0.25 0.23 0.23 0.23 0.24 0.24 0.23 0.23 0.23 0.26 0.28
0.48 0.44 0.42 0.42 0.37 0.38 0.39 0.40 0.37 0.33 0.33 0.35 0.34 0.35 0.34 0.34 0.33 0.34 0.34 0.33 0.31 0.26 0.20 0.19 0.19 0.19 0.19 0.19 0.19 0.21 0.23 0.24 0.24 0.23 0.23 0.23 0.22 0.22 0.22 0.23 0.22 0.23 0.25
0.43 0.43 0.42 0.38 0.36 0.36 0.38 0.35 0.32 0.32 0.32 0.32 0.32 0.34 0.32 0.30 0.30 0.30 0.29 0.27 0.24 0.19 0.18 0.18 0.19 0.19 0.19 0.20 0.22 0.23 0.25 0.24 0.23 0.24 0.23 0.22 0.22 0.22 0.22 0.21 0.22 0.22 0.21
0.44 0.43 0.39 0.36 0.33 0.34 0.34 0.30 0.29 0.30 0.31 0.30 0.33 0.33 0.31 0.31 0.28 0.28 0.25 0.21 0.19 0.18 0.18 0.18 0.18 0.18 0.19 0.20 0.22 0.24 0.27 0.26 0.25 0.24 0.23 0.24 0.24 0.23 0.24 0.22 0.21 0.22 0.23
0.43 0.40 0.35 0.34 0.33 0.32 0.30 0.29 0.30 0.31 0.30 0.30 0.33 0.31 0.31 0.28 0.26 0.23 0.22 0.20 0.20 0.19 0.20 0.19 0.18 0.18 0.19 0.21 0.22 0.22 0.23 0.23 0.21 0.24 0.25 0.25 0.24 0.24 0.25 0.25 0.24 0.23 0.24
0.41 0.34 0.33 0.34 0.32 0.29 0.26 0.28 0.30 0.30 0.30 0.31 0.32 0.31 0.30 0.28 0.24 0.23 0.21 0.20 0.21 0.21 0.20 0.20 0.18 0.17 0.20 0.20 0.19 0.20 0.21 0.21 0.24 0.25 0.26 0.25 0.25 0.26 0.26 0.25 0.22 0.20 0.21
0.37 0.33 0.34 0.33 0.29 0.26 0.26 0.28 0.30 0.31 0.29 0.30 0.30 0.31 0.30 0.27 0.24 0.22 0.20 0.21 0.21 0.20 0.20 0.19 0.17 0.17 0.18 0.19 0.18 0.19 0.20 0.21 0.20 0.24 0.25 0.25 0.24 0.25 0.27 0.27 0.25 0.21 0.21
0.34 0.35 0.32 0.30 0.28 0.27 0.28 0.29 0.30 0.29 0.30 0.30 0.29 0.30 0.29 0.26 0.25 0.22 0.20 0.21 0.21 0.19 0.18 0.18 0.18 0.17 0.16 0.17 0.18 0.20 0.20 0.20 0.20 0.24 0.24 0.24 0.25 0.24 0.25 0.27 0.30 0.25 0.22
0.34 0.31 0.29 0.29 0.28 0.27 0.28 0.30 0.30 0.29 0.29 0.29 0.30 0.29 0.28 0.27 0.25 0.23 0.21 0.21 0.21 0.19 0.17 0.18 0.18 0.15 0.15 0.15 0.17 0.18 0.19 0.19 0.21 0.24 0.24 0.23 0.24 0.25 0.26 0.27 0.28 0.28 0.29
0.31 0.29 0.29 0.30 0.29 0.29 0.28 0.28 0.28 0.30 0.28 0.29 0.28 0.27 0.25 0.27 0.25 0.24 0.22 0.21 0.22 0.19 0.18 0.17 0.16 0.14 0.15 0.15 0.16 0.16 0.19 0.19 0.19 0.22 0.22 0.23 0.25 0.27 0.28 0.29 0.31 0.32 0.30
0.28 0.28 0.29 0.29 0.29 0.28 0.28 0.29 0.29 0.29 0.28 0.28 0.28 0.25 0.24 0.24 0.24 0.24 0.24 0.24 0.23 0.20 0.19 0.17 0.16 0.16 0.16 0.16 0.17 0.17 0.17 0.17 0.18 0.20 0.23 0.24 0.25 0.26 0.26 0.28 0.27 0.29 0.28
0.29 0.29 0.28 0.29 0.28 0.28 0.29 0.28 0.30 0.30 0.31 0.29 0.28 0.26 0.23 0.22 0.24 0.25 0.23 0.23 0.22 0.20 0.17 0.17 0.16 0.16 0.15 0.15 0.16 0.16 0.16 0.15 0.16 0.19 0.22 0.23 0.23 0.24 0.25 0.27 0.27 0.27 0.27
0.28 0.28 0.28 0.27 0.28 0.28 0.28 0.28 0.31 0.31 0.31 0.30 0.28 0.26 0.25 0.25 0.25 0.24 0.23 0.23 0.22 0.19 0.17 0.16 0.16 0.16 0.15 0.14 0.15 0.15 0.16 0.15 0.14 0.18 0.18 0.20 0.23 0.23 0.23 0.25 0.26 0.26 0.25
0.27 0.27 0.27 0.28 0.28 0.27 0.28 0.28 0.27 0.30 0.33 0.32 0.29 0.27 0.26 0.24 0.25 0.24 0.24 0.23 0.22 0.20 0.17 0.17 0.17 0.16 0.16 0.15 0.14 0.14 0.14 0.16 0.16 0.15 0.18 0.17 0.16 0.21 0.23 0.22 0.23 0.24 0.24
0.29 0.28 0.28 0.28 0.28 0.29 0.29 0.29 0.29 0.29 0.28 0.29 0.30 0.27 0.26 0.24 0.23 0.24 0.24 0.24 0.20 0.20 0.19 0.18 0.17 0.17 0.17 0.15 0.14 0.13 0.13 0.15 0.16 0.16 0.17 0.19 0.18 0.15 0.17 0.21 0.22 0.22 0.22
0.29 0.28 0.29 0.29 0.29 0.29 0.29 0.29 0.29 0.30 0.30 0.29 0.26 0.28 0.26 0.24 0.24 0.24 0.25 0.23 0.20 0.20 0.20 0.20 0.19 0.19 0.18 0.17 0.17 0.16 0.15 0.14 0.14 0.14 0.16 0.17 0.19 0.19 0.15 0.15 0.19 0.20 0.20
0.30 0.28 0.27 0.27 0.28 0.29 0.30 0.27 0.28 0.29 0.30 0.29 0.24 0.25 0.26 0.25 0.23 0.22 0.24 0.23 0.22 0.21 0.21 0.20 0.21 0.20 0.20 0.19 0.18 0.18 0.16 0.15 0.15 0.14 0.15 0.15 0.17 0.18 0.19 0.16 0.14 0.16 0.17
0.31 0.28 0.27 0.27 0.27 0.27 0.28 0.28 0.28 0.29 0.30 0.28 0.25 0.27 0.28 0.26 0.24 0.23 0.24 0.25 0.24 0.22 0.22 0.21 0.22 0.22 0.22 0.21 0.20 0.19 0.17 0.16 0.15 0.15 0.15 0.14 0.15 0.16 0.18 0.19 0.18 0.14 0.13
0.31 0.29 0.29 0.29 0.28 0.28 0.28 0.30 0.30 0.30 0.30 0.30 0.27 0.27 0.28 0.30 0.29 0.26 0.25 0.25 0.25 0.25 0.25 0.23 0.22 0.23 0.23 0.22 0.22 0.20 0.19 0.17 0.16 0.15 0.15 0.14 0.15 0.17 0.17 0.17 0.18 0.18 0.15
0.31 0.29 0.29 0.30 0.30 0.29 0.29 0.30 0.30 0.31 0.30 0.31 0.31 0.30 0.30 0.28 0.29 0.30 0.30 0.28 0.27 0.26 0.26 0.25 0.24 0.23 0.24 0.24 0.24 0.23 0.21 0.19 0.17 0.17 0.15 0.15 0.15 0.16 0.17 0.17 0.17 0.17 0.17
0.29 0.27 0.26 0.27 0.28 0.29 0.29 0.29 0.31 0.31 0.31 0.31 0.32 0.31 0.30 0.30 0.30 0.30 0.31 0.32 0.33 0.30 0.29 0.27 0.26 0.24 0.23 0.24 0.24 0.25 0.24 0.22 0.19 0.17 0.16 0.15 0.15 0.16 0.16 0.16 0.16 0.16 0.17
0.28 0.27 0.27 0.27 0.28 0.29 0.29 0.29 0.30 0.31 0.31 0.31 0.30 0.29 0.29 0.29 0.29 0.30 0.31 0.33 0.33 0.33 0.33 0.30 0.29 0.26 0.24 0.23 0.24 0.24 0.24 0.22 0.20 0.18 0.17 0.15 0.15 0.15 0.16 0.16 0.16 0.17 0.17
0.29 0.28 0.28 0.28 0.29 0.29 0.29 0.28 0.28 0.28 0.27 0.27 0.26 0.25 0.25 0.25 0.25 0.26 0.27 0.29 0.30 0.32 0.33 0.33 0.31 0.29 0.27 0.25 0.24 0.24 0.24 0.23 0.21 0.18 0.18 0.16 0.15 0.15 0.15 0.15 0.15 0.16 0.17

GFSGL_prec_pwat_027.txt.gz
Precipitable_Water
0.67 0.65 0.67 0.69 0.60 0.51 0.48 0.46 0.43 0.43 0.43 0.42 0.39 0.38 0.39 0.38 0.37 0.37 0.38 0.39 0.39 0.44 0.38 0.34 0.37 0.38 0.35 0.34 0.32 0.24 0.24 0.23 0.20 0.19 0.20 0.23 0.26 0.27 0.28 0.29 0.28 0.28 0.27
0.68 0.67 0.71 0.62 0.48 0.48 0.48 0.44 0.44 0.45 0.46 0.43 0.38 0.38 0.38 0.37 0.37 0.37 0.35 0.35 0.40 0.40 0.38 0.35 0.34 0.35 0.32 0.27 0.23 0.22 0.21 0.21 0.20 0.17 0.19 0.23 0.26 0.28 0.27 0.26 0.27 0.28 0.28
0.68 0.69 0.61 0.51 0.49 0.48 0.44 0.42 0.45 0.46 0.45 0.42 0.38 0.38 0.37 0.37 0.36 0.36 0.35 0.35 0.35 0.36 0.36 0.34 0.32 0.29 0.22 0.21 0.21 0.20 0.19 0.20 0.20 0.20 0.21 0.25 0.25 0.26 0.26 0.27 0.26 0.26 0.28
0.68 0.60 0.55 0.50 0.47 0.46 0.43 0.42 0.43 0.46 0.43 0.39 0.38 0.37 0.38 0.37 0.35 0.34 0.33 0.33 0.36 0.35 0.34 0.30 0.24 0.21 0.20 0.20 0.18 0.19 0.19 0.19 0.20 0.21 0.22 0.24 0.24 0.26 0.27 0.24 0.25 0.27 0.24
0.67 0.56 0.53 0.51 0.47 0.45 0.41 0.43 0.45 0.44 0.39 0.38 0.36 0.36 0.37 0.36 0.33 0.31 0.32 0.31 0.30 0.29 0.27 0.22 0.21 0.20 0.19 0.19 0.18 0.18 0.19 0.20 0.21 0.22 0.21 0.21 0.22 0.23 0.22 0.23 0.23 0.23 0.23
0.61 0.56 0.50 0.47 0.46 0.42 0.41 0.43 0.43 0.39 0.36 0.37 0.36 0.35 0.35 0.35 0.31 0.29 0.28 0.27 0.25 0.23 0.21 0.20 0.20 0.21 0.20 0.20 0.21 0.21 0.22 0.20 0.21 0.22 0.21 0.19 0.21 0.23 0.27 0.26 0.23 0.21 0.18
0.56 0.52 0.49 0.47 0.45 0.40 0.39 0.39 0.36 0.34 0.36 0.36 0.35 0.36 0.36 0.36 0.32 0.28 0.26 0.23 0.22 0.22 0.21 0.20 0.20 0.20 0.21 0.20 0.20 0.20 0.22 0.23 0.25 0.24 0.22 0.23 0.25 0.24 0.24 0.23 0.22 0.23 0.22
0.52 0.51 0.49 0.45 0.39 0.38 0.38 0.35 0.32 0.34 0.35 0.34 0.35 0.36 0.35 0.34 0.32 0.28 0.25 0.22 0.22 0.23 0.22 0.21 0.20 0.20 0.19 0.19 0.18 0.18 0.19 0.21 0.23 0.23 0.22 0.24 0.25 0.24 0.23 0.23 0.23 0.22 0.23
0.55 0.50 0.45 0.40 0.39 0.39 0.34 0.31 0.31 0.33 0.33 0.34 0.33 0.34 0.33 0.34 0.32 0.29 0.24 0.23 0.23 0.22 0.23 0.22 0.21 0.18 0.19 0.17 0.16 0.17 0.18 0.20 0.22 0.22 0.22 0.25 0.26 0.25 0.24 0.24 0.23 0.22 0.21
0.51 0.49 0.41 0.39 0.40 0.33 0.31 0.30 0.32 0.34 0.33 0.33 0.31 0.33 0.33 0.33 0.31 0.28 0.23 0.23 0.22 0.22 0.22 0.21 0.21 0.18 0.18 0.15 0.15 0.16 0.16 0.19 0.19 0.19 0.23 0.26 0.26 0.27 0.27 0.27 0.27 0.23 0.23
0.49 0.38 0.42 0.38 0.33 0.33 0.32 0.32 0.33 0.33 0.33 0.31 0.31 0.32 0.33 0.33 0.31 0.28 0.24 0.22 0.22 0.21 0.20 0.19 0.20 0.19 0.16 0.14 0.15 0.16 0.17 0.17 0.19 0.21 0.24 0.25 0.26 0.26 0.26 0.27 0.28 0.28 0.25
0.43 0.45 0.36 0.35 0.36 0.34 0.32 0.32 0.32 0.33 0.32 0.31 0.31 0.32 0.34 0.33 0.30 0.26 0.24 0.23 0.21 0.20 0.20 0.19 0.20 0.18 0.14 0.14 0.16 0.17 0.16 0.19 0.21 0.21 0.23 0.24 0.24 0.24 0.26 0.27 0.31 0.32 0.31
0.44 0.37 0.36 0.36 0.35 0.34 0.33 0.30 0.29 0.30 0.30 0.30 0.30 0.31 0.31 0.31 0.32 0.29 0.25 0.24 0.22 0.22 0.21 0.19 0.17 0.17 0.16 0.16 0.16 0.17 0.18 0.19 0.18 0.18 0.20 0.23 0.25 0.26 0.27 0.28 0.29 0.31 0.34
0.38 0.36 0.35 0.32 0.32 0.32 0.32 0.31 0.29 0.28 0.29 0.30 0.29 0.29 0.30 0.30 0.29 0.29 0.27 0.26 0.24 0.24 0.23 0.21 0.18 0.18 0.17 0.17 0.18 0.18 0.19 0.19 0.16 0.18 0.19 0.22 0.26 0.25 0.24 0.27 0.27 0.28 0.28
0.35 0.33 0.32 0.32 0.32 0.31 0.30 0.30 0.29 0.29 0.31 0.30 0.31 0.31 0.30 0.27 0.26 0.27 0.28 0.27 0.26 0.25 0.21 0.19 0.18 0.19 0.17 0.17 0.17 0.17 0.18 0.18 0.17 0.16 0.19 0.19 0.21 0.24 0.24 0.25 0.26 0.26 0.25
0.33 0.32 0.31 0.30 0.29 0.29 0.28 0.27 0.30 0.31 0.31 0.31 0.31 0.30 0.31 0.29 0.27 0.26 0.25 0.24 0.24 0.23 0.20 0.18 0.18 0.19 0.18 0.17 0.17 0.16 0.17 0.17 0.17 0.17 0.17 0.19 0.18 0.18 0.23 0.24 0.25 0.25 0.24
0.29 0.28 0.28 0.28 0.28 0.27 0.28 0.29 0.26 0.30 0.32 0.32 0.31 0.31 0.31 0.29 0.28 0.26 0.25 0.24 0.25 0.23 0.19 0.19 0.19 0.20 0.19 0.18 0.17 0.16 0.15 0.16 0.17 0.17 0.17 0.18 0.19 0.19 0.17 0.22 0.23 0.23 0.23
0.28 0.29 0.29 0.29 0.29 0.28 0.28 0.29 0.29 0.27 0.27 0.28 0.34 0.34 0.32 0.29 0.28 0.26 0.25 0.25 0.23 0.23 0.21 0.19 0.19 0.21 0.20 0.19 0.19 0.18 0.17 0.17 0.16 0.16 0.16 0.17 0.18 0.19 0.20 0.16 0.19 0.21 0.21
0.30 0.30 0.31 0.31 0.30 0.28 0.28 0.29 0.29 0.28 0.28 0.28 0.31 0.33 0.33 0.30 0.29 0.27 0.25 0.23 0.22 0.22 0.22 0.22 0.22 0.22 0.21 0.21 0.20 0.20 0.19 0.18 0.16 0.15 0.16 0.17 0.17 0.18 0.18 0.20 0.17 0.18 0.19
0.31 0.31 0.31 0.30 0.28 0.28 0.27 0.27 0.28 0.28 0.28 0.28 0.29 0.31 0.32 0.30 0.28 0.27 0.26 0.24 0.24 0.24 0.23 0.22 0.22 0.22 0.22 0.22 0.22 0.22 0.20 0.20 0.18 0.17 0.16 0.16 0.17 0.17 0.18 0.18 0.20 0.17 0.16
0.32 0.32 0.32 0.32 0.30 0.30 0.30 0.28 0.28 0.28 0.28 0.29 0.30 0.34 0.33 0.28 0.27 0.30 0.30 0.28 0.26 0.25 0.25 0.24 0.24 0.23 0.24 0.23 0.22 0.22 0.22 0.21 0.19 0.17 0.16 0.16 0.16 0.16 0.18 0.18 0.18 0.19 0.18
0.33 0.33 0.31 0.30 0.30 0.29 0.29 0.30 0.28 0.27 0.28 0.29 0.31 0.34 0.33 0.31 0.29 0.28 0.30 0.31 0.31 0.31 0.29 0.28 0.26 0.25 0.24 0.23 0.22 0.23 0.22 0.22 0.21 0.19 0.17 0.16 0.16 0.16 0.17 0.17 0.18 0.18 0.19
0.31 0.31 0.31 0.30 0.28 0.27 0.27 0.29 0.28 0.28 0.29 0.30 0.32 0.33 0.34 0.33 0.32 0.32 0.31 0.30 0.31 0.33 0.33 0.32 0.29 0.27 0.27 0.26 0.25 0.23 0.23 0.23 0.23 0.22 0.18 0.16 0.16 0.16 0.16 0.16 0.17 0.17 0.17
0.32 0.31 0.29 0.28 0.27 0.26 0.27 0.28 0.29 0.30 0.30 0.30 0.31 0.32 0.33 0.33 0.33 0.33 0.32 0.32 0.32 0.33 0.34 0.34 0.33 0.32 0.29 0.28 0.27 0.25 0.24 0.24 0.25 0.23 0.20 0.17 0.16 0.16 0.16 0.16 0.16 0.17 0.17
0.36 0.32 0.31 0.30 0.27 0.27 0.27 0.28 0.30 0.30 0.30 0.30 0.30 0.31 0.32 0.32 0.31 0.30 0.30 0.30 0.30 0.30 0.31 0.32 0.34 0.33 0.33 0.31 0.30 0.27 0.25 0.24 0.24 0.24 0.22 0.19 0.17 0.16 0.15 0.15 0.15 0.15 0.17
0.28 0.31 0.31 0.31 0.28 0.28 0.27 0.27 0.28 0.29 0.28 0.29 0.29 0.29 0.29 0.28 0.27 0.27 0.26 0.26 0.26 0.27 0.28 0.30 0.31 0.32 0.33 0.33 0.32 0.31 0.28 0.25 0.23 0.23 0.22 0.21 0.18 0.17 0.17 0.16 0.15 0.15 0.16

GFSGL_prec_pwat_030.txt.gz
Precipitable_Water
0.68 0.70 0.68 0.66 0.69 0.67 0.65 0.60 0.53 0.46 0.44 0.44 0.46 0.45 0.41 0.41 0.41 0.40 0.39 0.34 0.33 0.35 0.36 0.38 0.43 0.41 0.37 0.36 0.34 0.31 0.26 0.22 0.18 0.19 0.20 0.21 0.21 0.22 0.22 0.26 0.26 0.25 0.25
0.69 0.68 0.68 0.68 0.72 0.64 0.57 0.61 0.56 0.49 0.47 0.47 0.50 0.46 0.40 0.40 0.40 0.38 0.36 0.37 0.33 0.36 0.36 0.37 0.37 0.36 0.32 0.30 0.27 0.22 0.19 0.19 0.18 0.16 0.19 0.19 0.21 0.22 0.25 0.25 0.25 0.27 0.27
0.66 0.67 0.70 0.70 0.65 0.63 0.57 0.57 0.52 0.46 0.46 0.51 0.49 0.42 0.40 0.40 0.40 0.38 0.38 0.35 0.36 0.36 0.35 0.33 0.31 0.29 0.25 0.22 0.19 0.19 0.18 0.18 0.18 0.17 0.17 0.19 0.22 0.24 0.23 0.24 0.25 0.27 0.28
0.66 0.70 0.68 0.65 0.67 0.56 0.59 0.55 0.46 0.43 0.47 0.48 0.44 0.40 0.40 0.41 0.41 0.38 0.36 0.35 0.34 0.32 0.32 0.30 0.27 0.22 0.20 0.19 0.18 0.17 0.17 0.17 0.17 0.17 0.18 0.19 0.21 0.23 0.24 0.22 0.23 0.26 0.26
0.68 0.68 0.65 0.66 0.56 0.64 0.57 0.51 0.45 0.46 0.46 0.46 0.40 0.41 0.41 0.41 0.40 0.36 0.35 0.31 0.30 0.28 0.27 0.25 0.23 0.21 0.20 0.19 0.18 0.18 0.18 0.18 0.17 0.17 0.17 0.19 0.21 0.20 0.19 0.25 0.26 0.25 0.24
0.68 0.67 0.61 0.67 0.61 0.57 0.52 0.46 0.41 0.45 0.48 0.43 0.42 0.39 0.38 0.40 0.38 0.35 0.33 0.29 0.26 0.23 0.22 0.22 0.21 0.21 0.21 0.20 0.21 0.21 0.20 0.18 0.17 0.19 0.20 0.21 0.21 0.23 0.25 0.24 0.22 0.21 0.18
0.67 0.64 0.65 0.57 0.58 0.52 0.49 0.42 0.45 0.45 0.41 0.38 0.40 0.40 0.39 0.39 0.37 0.35 0.32 0.29 0.24 0.23 0.23 0.21 0.20 0.21 0.21 0.21 0.20 0.19 0.16 0.19 0.20 0.20 0.20 0.22 0.22 0.22 0.23 0.21 0.20 0.20 0.19
0.65 0.60 0.58 0.55 0.53 0.51 0.43 0.44 0.43 0.38 0.37 0.39 0.40 0.37 0.37 0.39 0.36 0.34 0.32 0.29 0.26 0.23 0.24 0.22 0.21 0.21 0.20 0.18 0.17 0.14 0.15 0.17 0.19 0.21 0.21 0.20 0.21 0.23 0.24 0.23 0.22 0.21 0.23
0.59 0.58 0.58 0.54 0.49 0.43 0.43 0.40 0.38 0.38 0.36 0.37 0.38 0.36 0.35 0.37 0.35 0.33 0.31 0.30 0.26 0.23 0.23 0.23 0.22 0.21 0.20 0.19 0.16 0.13 0.14 0.15 0.19 0.20 0.19 0.20 0.24 0.27 0.27 0.27 0.24 0.22 0.20
0.57 0.56 0.55 0.52 0.44 0.44 0.39 0.40 0.39 0.37 0.37 0.38 0.37 0.37 0.36 0.35 0.35 0.33 0.31 0.29 0.23 0.22 0.23 0.22 0.21 0.20 0.19 0.19 0.15 0.13 0.13 0.15 0.16 0.17 0.19 0.23 0.25 0.28 0.28 0.28 0.28 0.22 0.23
0.61 0.58 0.50 0.52 0.47 0.44 0.43 0.39 0.37 0.36 0.36 0.35 0.35 0.34 0.34 0.34 0.33 0.33 0.32 0.27 0.23 0.22 0.21 0.20 0.22 0.21 0.20 0.17 0.14 0.14 0.15 0.17 0.17 0.19 0.20 0.21 0.25 0.26 0.25 0.26 0.28 0.27 0.24
0.56 0.56 0.52 0.46 0.45 0.42 0.39 0.37 0.37 0.33 0.32 0.33 0.33 0.32 0.33 0.34 0.33 0.32 0.31 0.27 0.25 0.21 0.19 0.21 0.22 0.20 0.17 0.16 0.16 0.16 0.17 0.17 0.18 0.17 0.17 0.19 0.22 0.24 0.25 0.26 0.27 0.28 0.30
0.54 0.48 0.46 0.45 0.41 0.39 0.37 0.35 0.31 0.30 0.28 0.27 0.28 0.29 0.30 0.33 0.33 0.33 0.32 0.29 0.26 0.23 0.22 0.22 0.21 0.19 0.19 0.18 0.17 0.17 0.17 0.17 0.17 0.15 0.16 0.18 0.19 0.25 0.26 0.26 0.26 0.28 0.29
0.48 0.46 0.42 0.37 0.36 0.34 0.31 0.30 0.30 0.29 0.28 0.27 0.26 0.27 0.29 0.32 0.33 0.34 0.32 0.29 0.27 0.25 0.24 0.24 0.23 0.19 0.20 0.19 0.19 0.19 0.18 0.17 0.16 0.16 0.16 0.18 0.20 0.19 0.23 0.25 0.24 0.26 0.25
0.39 0.34 0.32 0.32 0.29 0.28 0.29 0.28 0.28 0.29 0.29 0.27 0.28 0.29 0.29 0.30 0.32 0.34 0.31 0.28 0.28 0.27 0.26 0.23 0.20 0.19 0.19 0.18 0.18 0.18 0.18 0.17 0.16 0.16 0.15 0.17 0.18 0.19 0.18 0.24 0.25 0.24 0.23
0.29 0.29 0.27 0.27 0.28 0.28 0.28 0.27 0.29 0.28 0.29 0.30 0.31 0.31 0.31 0.32 0.33 0.33 0.30 0.28 0.27 0.26 0.22 0.20 0.19 0.19 0.19 0.19 0.18 0.18 0.18 0.17 0.16 0.15 0.16 0.16 0.17 0.18 0.18 0.19 0.23 0.23 0.22
0.25 0.26 0.27 0.27 0.28 0.28 0.28 0.26 0.24 0.28 0.31 0.32 0.33 0.33 0.33 0.33 0.33 0.31 0.29 0.28 0.26 0.24 0.21 0.20 0.19 0.19 0.20 0.20 0.19 0.19 0.18 0.18 0.18 0.16 0.16 0.15 0.17 0.17 0.18 0.19 0.17 0.21 0.21
0.26 0.27 0.28 0.29 0.30 0.30 0.28 0.28 0.27 0.24 0.24 0.26 0.31 0.32 0.34 0.35 0.35 0.32 0.30 0.29 0.24 0.24 0.22 0.21 0.20 0.20 0.20 0.20 0.20 0.20 0.20 0.20 0.18 0.17 0.15 0.15 0.16 0.16 0.17 0.17 0.19 0.17 0.19
0.28 0.29 0.31 0.31 0.32 0.31 0.30 0.27 0.27 0.26 0.27 0.27 0.31 0.31 0.33 0.36 0.35 0.34 0.31 0.28 0.24 0.22 0.23 0.22 0.22 0.22 0.22 0.23 0.21 0.21 0.21 0.20 0.20 0.18 0.16 0.16 0.15 0.16 0.15 0.17 0.17 0.19 0.17
0.30 0.31 0.32 0.33 0.32 0.31 0.31 0.30 0.29 0.28 0.27 0.27 0.26 0.28 0.32 0.34 0.31 0.31 0.30 0.28 0.28 0.26 0.24 0.24 0.25 0.24 0.25 0.25 0.23 0.23 0.21 0.21 0.21 0.21 0.19 0.17 0.16 0.16 0.15 0.16 0.17 0.17 0.18
0.31 0.33 0.33 0.34 0.33 0.32 0.31 0.30 0.29 0.29 0.28 0.28 0.27 0.29 0.32 0.32 0.32 0.32 0.31 0.29 0.29 0.30 0.30 0.29 0.27 0.25 0.24 0.25 0.25 0.23 0.21 0.21 0.21 0.22 0.20 0.18 0.16 0.14 0.15 0.17 0.16 0.17 0.17
0.31 0.31 0.31 0.31 0.33 0.33 0.30 0.29 0.27 0.26 0.27 0.28 0.28 0.29 0.32 0.33 0.33 0.33 0.32 0.31 0.33 0.34 0.33 0.32 0.30 0.31 0.30 0.27 0.26 0.24 0.22 0.21 0.21 0.22 0.21 0.20 0.17 0.15 0.16 0.16 0.16 0.16 0.16
0.28 0.29 0.31 0.32 0.31 0.31 0.31 0.30 0.27 0.27 0.27 0.29 0.30 0.30 0.31 0.31 0.33 0.33 0.33 0.33 0.34 0.34 0.34 0.33 0.32 0.32 0.33 0.32 0.31 0.28 0.25 0.23 0.23 0.23 0.22 0.21 0.19 0.16 0.16 0.15 0.15 0.15 0.15
0.19 0.20 0.22 0.24 0.26 0.33 0.32 0.30 0.28 0.27 0.27 0.29 0.30 0.30 0.30 0.31 0.32 0.33 0.34 0.35 0.35 0.35 0.34 0.33 0.33 0.32 0.33 0.33 0.33 0.33 0.31 0.28 0.26 0.24 0.23 0.22 0.20 0.18 0.17 0.16 0.15 0.15 0.15
0.17 0.18 0.20 0.22 0.24 0.30 0.31 0.30 0.27 0.28 0.28 0.29 0.29 0.29 0.30 0.30 0.31 0.31 0.33 0.33 0.33 0.30 0.29 0.30 0.30 0.31 0.31 0.32 0.32 0.32 0.32 0.31 0.29 0.26 0.23 0.22 0.20 0.19 0.18 0.15 0.15 0.15 0.15
0.20 0.22 0.24 0.25 0.24 0.25 0.28 0.27 0.27 0.27 0.26 0.26 0.26 0.27 0.27 0.27 0.27 0.26 0.26 0.26 0.25 0.26 0.27 0.29 0.29 0.29 0.30 0.30 0.31 0.32 0.32 0.31 0.30 0.28 0.24 0.22 0.21 0.20 0.18 0.17 0.17 0.15 0.14

GFSGL_prec_pwat_033.txt.gz
Precipitable_Water
0.74 0.72 0.71 0.72 0.68 0.66 0.68 0.68 0.69 0.68 0.65 0.51 0.48 0.48 0.47 0.44 0.42 0.44 0.42 0.40 0.38 0.35 0.36 0.37 0.36 0.38 0.39 0.38 0.35 0.32 0.30 0.25 0.17 0.17 0.18 0.19 0.18 0.19 0.19 0.21 0.23 0.23 0.25
0.74 0.72 0.71 0.71 0.67 0.68 0.69 0.68 0.71 0.66 0.60 0.54 0.51 0.48 0.47 0.46 0.44 0.42 0.40 0.41 0.38 0.36 0.36 0.37 0.34 0.35 0.31 0.30 0.28 0.24 0.19 0.18 0.16 0.13 0.15 0.16 0.17 0.19 0.20 0.20 0.22 0.24 0.24
0.73 0.70 0.68 0.69 0.69 0.68 0.67 0.70 0.63 0.59 0.57 0.54 0.48 0.46 0.48 0.46 0.43 0.43 0.42 0.42 0.40 0.37 0.36 0.33 0.32 0.29 0.25 0.23 0.19 0.17 0.17 0.17 0.16 0.15 0.14 0.16 0.17 0.19 0.19 0.22 0.23 0.24 0.25
0.70 0.66 0.67 0.69 0.69 0.69 0.70 0.62 0.57 0.60 0.57 0.50 0.45 0.46 0.49 0.44 0.43 0.43 0.41 0.42 0.39 0.35 0.32 0.31 0.28 0.25 0.22 0.20 0.18 0.17 0.17 0.16 0.16 0.15 0.14 0.15 0.18 0.20 0.22 0.21 0.22 0.24 0.23
0.76 0.70 0.70 0.68 0.71 0.70 0.62 0.60 0.63 0.56 0.52 0.45 0.48 0.47 0.41 0.44 0.44 0.41 0.40 0.40 0.36 0.32 0.29 0.26 0.24 0.23 0.22 0.20 0.17 0.17 0.18 0.17 0.16 0.14 0.15 0.16 0.17 0.19 0.20 0.23 0.20 0.20 0.20
0.74 0.73 0.72 0.67 0.70 0.65 0.62 0.63 0.56 0.49 0.47 0.50 0.43 0.44 0.45 0.44 0.43 0.42 0.40 0.37 0.34 0.29 0.24 0.23 0.23 0.23 0.21 0.21 0.20 0.20 0.20 0.17 0.13 0.14 0.16 0.16 0.18 0.21 0.21 0.19 0.20 0.18 0.16
0.75 0.73 0.70 0.71 0.69 0.61 0.61 0.60 0.53 0.46 0.46 0.43 0.44 0.44 0.42 0.44 0.44 0.40 0.39 0.36 0.31 0.29 0.27 0.24 0.23 0.23 0.21 0.20 0.20 0.19 0.17 0.15 0.15 0.16 0.16 0.18 0.17 0.19 0.19 0.20 0.21 0.21 0.20
0.71 0.67 0.67 0.65 0.62 0.60 0.60 0.52 0.47 0.48 0.46 0.45 0.41 0.41 0.41 0.41 0.41 0.38 0.35 0.33 0.31 0.30 0.29 0.25 0.23 0.22 0.21 0.20 0.18 0.16 0.15 0.12 0.14 0.17 0.19 0.18 0.19 0.21 0.24 0.25 0.25 0.24 0.24
0.63 0.63 0.63 0.63 0.61 0.59 0.53 0.49 0.49 0.47 0.43 0.39 0.39 0.39 0.38 0.38 0.37 0.36 0.34 0.32 0.32 0.30 0.29 0.24 0.23 0.22 0.21 0.20 0.17 0.16 0.13 0.12 0.16 0.17 0.18 0.20 0.22 0.24 0.27 0.28 0.24 0.22 0.19
0.65 0.64 0.65 0.64 0.58 0.54 0.53 0.48 0.46 0.43 0.38 0.37 0.37 0.37 0.35 0.34 0.35 0.35 0.33 0.31 0.30 0.29 0.26 0.24 0.23 0.21 0.20 0.20 0.18 0.15 0.11 0.13 0.15 0.16 0.17 0.18 0.21 0.24 0.26 0.26 0.25 0.21 0.20
0.66 0.68 0.65 0.63 0.57 0.51 0.48 0.45 0.40 0.36 0.33 0.32 0.30 0.32 0.33 0.33 0.34 0.34 0.32 0.30 0.29 0.26 0.23 0.22 0.22 0.22 0.21 0.20 0.18 0.15 0.14 0.16 0.16 0.17 0.17 0.17 0.19 0.20 0.24 0.25 0.26 0.25 0.22
0.66 0.63 0.58 0.54 0.51 0.45 0.39 0.35 0.34 0.33 0.30 0.28 0.27 0.28 0.30 0.32 0.32 0.32 0.32 0.31 0.30 0.26 0.24 0.23 0.23 0.24 0.21 0.19 0.18 0.17 0.17 0.17 0.16 0.16 0.16 0.15 0.17 0.18 0.21 0.24 0.25 0.26 0.27
0.59 0.53 0.50 0.44 0.38 0.34 0.32 0.30 0.28 0.28 0.27 0.26 0.26 0.26 0.28 0.30 0.32 0.32 0.33 0.33 0.32 0.29 0.27 0.25 0.23 0.23 0.21 0.19 0.19 0.19 0.19 0.17 0.16 0.15 0.14 0.15 0.16 0.19 0.19 0.21 0.25 0.26 0.26
0.45 0.38 0.34 0.30 0.29 0.30 0.29 0.27 0.26 0.26 0.25 0.26 0.26 0.26 0.26 0.28 0.31 0.33 0.34 0.34 0.34 0.31 0.27 0.25 0.24 0.24 0.23 0.20 0.20 0.20 0.19 0.18 0.17 0.16 0.15 0.15 0.17 0.18 0.18 0.18 0.22 0.24 0.23
0.30 0.27 0.25 0.24 0.24 0.24 0.25 0.26 0.27 0.29 0.29 0.26 0.26 0.27 0.27 0.27 0.30 0.33 0.34 0.33 0.33 0.31 0.28 0.25 0.23 0.22 0.20 0.19 0.20 0.19 0.19 0.19 0.17 0.17 0.15 0.14 0.15 0.16 0.16 0.19 0.19 0.20 0.22
0.23 0.22 0.22 0.22 0.23 0.25 0.25 0.26 0.31 0.31 0.29 0.30 0.30 0.31 0.30 0.32 0.34 0.34 0.34 0.33 0.33 0.31 0.28 0.24 0.21 0.20 0.20 0.19 0.19 0.19 0.19 0.19 0.19 0.18 0.17 0.15 0.14 0.15 0.15 0.17 0.19 0.17 0.19
0.21 0.21 0.22 0.24 0.25 0.26 0.27 0.27 0.25 0.28 0.30 0.28 0.28 0.30 0.31 0.32 0.33 0.34 0.35 0.34 0.33 0.30 0.25 0.22 0.20 0.20 0.19 0.19 0.21 0.20 0.18 0.20 0.20 0.20 0.18 0.15 0.14 0.15 0.14 0.16 0.17 0.18 0.16
0.24 0.25 0.25 0.27 0.28 0.29 0.29 0.30 0.30 0.27 0.24 0.24 0.28 0.29 0.30 0.31 0.32 0.33 0.35 0.35 0.30 0.29 0.26 0.22 0.20 0.20 0.20 0.20 0.20 0.20 0.20 0.20 0.20 0.20 0.19 0.16 0.15 0.15 0.14 0.14 0.16 0.16 0.18
0.27 0.29 0.30 0.31 0.31 0.33 0.34 0.35 0.35 0.32 0.29 0.27 0.27 0.28 0.30 0.30 0.30 0.33 0.35 0.32 0.29 0.28 0.26 0.25 0.23 0.22 0.22 0.22 0.21 0.22 0.22 0.21 0.20 0.20 0.19 0.19 0.17 0.16 0.14 0.14 0.16 0.16 0.16
0.33 0.33 0.33 0.32 0.32 0.32 0.32 0.31 0.31 0.32 0.29 0.28 0.25 0.24 0.28 0.30 0.27 0.29 0.31 0.32 0.31 0.30 0.27 0.28 0.28 0.25 0.24 0.24 0.24 0.25 0.24 0.22 0.21 0.20 0.19 0.21 0.20 0.17 0.14 0.13 0.15 0.15 0.16
0.26 0.26 0.26 0.27 0.28 0.28 0.29 0.30 0.32 0.32 0.30 0.28 0.27 0.28 0.30 0.29 0.27 0.29 0.30 0.31 0.32 0.31 0.29 0.29 0.30 0.30 0.29 0.27 0.26 0.25 0.25 0.24 0.22 0.20 0.20 0.21 0.21 0.17 0.15 0.15 0.15 0.15 0.16
0.19 0.18 0.17 0.16 0.16 0.19 0.24 0.28 0.31 0.29 0.29 0.30 0.29 0.28 0.30 0.29 0.30 0.30 0.31 0.31 0.33 0.34 0.33 0.33 0.32 0.32 0.31 0.30 0.29 0.28 0.26 0.25 0.24 0.22 0.20 0.20 0.21 0.20 0.17 0.15 0.15 0.15 0.15
0.15 0.15 0.16 0.16 0.17 0.16 0.17 0.19 0.20 0.23 0.31 0.30 0.27 0.27 0.28 0.29 0.30 0.30 0.31 0.33 0.34 0.34 0.35 0.34 0.33 0.33 0.33 0.32 0.32 0.31 0.29 0.28 0.28 0.25 0.22 0.21 0.21 0.21 0.19 0.16 0.15 0.15 0.14
0.16 0.16 0.15 0.16 0.18 0.20 0.21 0.20 0.22 0.30 0.30 0.28 0.28 0.29 0.29 0.28 0.29 0.30 0.31 0.32 0.33 0.34 0.35 0.35 0.34 0.34 0.33 0.32 0.32 0.32 0.32 0.31 0.31 0.29 0.27 0.24 0.21 0.21 0.20 0.18 0.16 0.15 0.15
0.13 0.14 0.14 0.14 0.16 0.18 0.19 0.21 0.23 0.25 0.28 0.28 0.27 0.27 0.26 0.26 0.26 0.26 0.27 0.28 0.28 0.29 0.30 0.31 0.34 0.32 0.30 0.29 0.30 0.30 0.31 0.32 0.31 0.30 0.29 0.27 0.23 0.21 0.20 0.19 0.17 0.16 0.15
0.12 0.13 0.12 0.13 0.14 0.15 0.17 0.18 0.20 0.21 0.22 0.24 0.24 0.24 0.23 0.23 0.22 0.23 0.24 0.24 0.23 0.23 0.23 0.24 0.24 0.24 0.27 0.30 0.30 0.30 0.30 0.31 0.30 0.30 0.29 0.27 0.24 0.21 0.20 0.19 0.18 0.17 0.16

GFSGL_prec_pwat_036.txt.gz
Precipitable_Water
0.81 0.82 0.83 0.82 0.81 0.81 0.76 0.72 0.67 0.69 0.68 0.72 0.68 0.63 0.56 0.48 0.47 0.48 0.49 0.44 0.41 0.42 0.45 0.41 0.39 0.40 0.37 0.36 0.34 0.31 0.30 0.28 0.22 0.18 0.17 0.17 0.15 0.15 0.16 0.18 0.19 0.20 0.21
0.82 0.82 0.77 0.77 0.80 0.77 0.68 0.70 0.69 0.71 0.74 0.65 0.62 0.58 0.53 0.49 0.47 0.48 0.47 0.43 0.44 0.43 0.43 0.41 0.37 0.36 0.34 0.31 0.28 0.25 0.22 0.20 0.17 0.13 0.14 0.15 0.14 0.16 0.17 0.18 0.20 0.21 0.22
0.87 0.84 0.78 0.73 0.70 0.66 0.66 0.65 0.69 0.74 0.63 0.61 0.58 0.55 0.52 0.49 0.49 0.48 0.45 0.45 0.44 0.45 0.44 0.39 0.35 0.33 0.29 0.26 0.24 0.21 0.20 0.19 0.18 0.15 0.14 0.16 0.14 0.16 0.17 0.20 0.21 0.22 0.23
0.84 0.80 0.77 0.77 0.77 0.73 0.72 0.73 0.71 0.63 0.61 0.60 0.57 0.52 0.49 0.50 0.49 0.45 0.45 0.44 0.45 0.43 0.41 0.37 0.33 0.28 0.24 0.22 0.21 0.19 0.19 0.17 0.17 0.16 0.14 0.13 0.14 0.17 0.19 0.19 0.18 0.20 0.18
0.86 0.79 0.79 0.80 0.76 0.73 0.70 0.74 0.67 0.68 0.61 0.61 0.53 0.50 0.50 0.48 0.46 0.45 0.45 0.44 0.42 0.39 0.39 0.33 0.28 0.26 0.24 0.23 0.20 0.18 0.19 0.17 0.16 0.14 0.11 0.12 0.13 0.15 0.17 0.19 0.18 0.18 0.20
0.80 0.78 0.79 0.77 0.74 0.73 0.69 0.71 0.65 0.64 0.64 0.57 0.52 0.50 0.46 0.45 0.45 0.45 0.43 0.41 0.40 0.36 0.32 0.29 0.29 0.27 0.24 0.22 0.22 0.21 0.20 0.17 0.14 0.12 0.11 0.11 0.14 0.16 0.18 0.17 0.17 0.19 0.17
0.77 0.78 0.76 0.72 0.68 0.68 0.71 0.65 0.65 0.62 0.59 0.54 0.51 0.47 0.43 0.43 0.42 0.40 0.40 0.37 0.35 0.33 0.30 0.29 0.28 0.28 0.24 0.21 0.21 0.20 0.20 0.19 0.16 0.12 0.11 0.14 0.14 0.16 0.17 0.18 0.20 0.21 0.21
0.77 0.74 0.71 0.69 0.67 0.66 0.66 0.63 0.61 0.60 0.55 0.50 0.45 0.41 0.37 0.36 0.37 0.37 0.35 0.34 0.33 0.32 0.31 0.30 0.29 0.27 0.23 0.22 0.20 0.19 0.18 0.17 0.13 0.14 0.15 0.15 0.17 0.20 0.21 0.23 0.24 0.24 0.24
0.66 0.66 0.67 0.67 0.64 0.66 0.66 0.63 0.60 0.54 0.47 0.41 0.37 0.33 0.32 0.31 0.34 0.35 0.34 0.33 0.32 0.31 0.31 0.31 0.30 0.26 0.23 0.23 0.20 0.18 0.17 0.14 0.15 0.16 0.18 0.18 0.18 0.20 0.22 0.24 0.22 0.21 0.18
0.66 0.68 0.69 0.68 0.69 0.66 0.63 0.56 0.50 0.43 0.37 0.32 0.30 0.30 0.28 0.27 0.31 0.32 0.32 0.32 0.32 0.30 0.30 0.30 0.28 0.23 0.23 0.22 0.20 0.18 0.14 0.12 0.14 0.15 0.17 0.17 0.17 0.18 0.19 0.22 0.23 0.20 0.20
0.73 0.71 0.70 0.70 0.66 0.59 0.51 0.45 0.37 0.33 0.30 0.28 0.26 0.26 0.27 0.28 0.29 0.30 0.31 0.30 0.30 0.29 0.28 0.28 0.26 0.25 0.23 0.23 0.22 0.18 0.15 0.16 0.16 0.16 0.16 0.17 0.17 0.17 0.18 0.19 0.22 0.23 0.21
0.67 0.68 0.65 0.58 0.51 0.46 0.38 0.32 0.28 0.26 0.24 0.24 0.24 0.25 0.27 0.28 0.29 0.30 0.31 0.32 0.32 0.29 0.29 0.30 0.29 0.26 0.24 0.24 0.22 0.19 0.19 0.19 0.18 0.17 0.15 0.15 0.15 0.15 0.17 0.19 0.18 0.23 0.26
0.61 0.55 0.48 0.44 0.38 0.33 0.27 0.24 0.23 0.24 0.23 0.22 0.23 0.23 0.24 0.27 0.28 0.30 0.32 0.33 0.32 0.30 0.32 0.32 0.31 0.27 0.25 0.24 0.23 0.21 0.20 0.19 0.18 0.16 0.15 0.15 0.15 0.16 0.17 0.17 0.19 0.21 0.25
0.43 0.39 0.35 0.30 0.25 0.25 0.25 0.25 0.23 0.22 0.23 0.23 0.24 0.23 0.23 0.24 0.26 0.29 0.31 0.32 0.33 0.34 0.33 0.33 0.33 0.29 0.26 0.25 0.24 0.22 0.21 0.20 0.18 0.17 0.17 0.17 0.17 0.16 0.15 0.16 0.17 0.18 0.18
0.31 0.28 0.25 0.23 0.22 0.21 0.22 0.23 0.23 0.25 0.27 0.26 0.25 0.25 0.23 0.22 0.25 0.29 0.30 0.32 0.33 0.33 0.33 0.32 0.29 0.26 0.24 0.23 0.23 0.21 0.21 0.20 0.18 0.19 0.19 0.18 0.17 0.15 0.15 0.16 0.17 0.17 0.16
0.23 0.21 0.20 0.20 0.21 0.21 0.22 0.23 0.28 0.30 0.31 0.31 0.31 0.30 0.27 0.27 0.27 0.29 0.31 0.33 0.34 0.35 0.31 0.28 0.28 0.25 0.23 0.21 0.21 0.20 0.20 0.20 0.19 0.19 0.19 0.19 0.18 0.15 0.14 0.15 0.16 0.16 0.16
0.23 0.23 0.24 0.24 0.24 0.24 0.26 0.27 0.26 0.28 0.33 0.35 0.34 0.33 0.31 0.30 0.28 0.29 0.31 0.32 0.34 0.34 0.28 0.28 0.27 0.24 0.23 0.22 0.21 0.20 0.19 0.21 0.21 0.19 0.19 0.20 0.19 0.15 0.15 0.14 0.14 0.15 0.15
0.28 0.28 0.28 0.28 0.28 0.29 0.29 0.29 0.30 0.30 0.30 0.30 0.36 0.36 0.33 0.32 0.30 0.29 0.29 0.32 0.29 0.31 0.29 0.29 0.28 0.25 0.24 0.21 0.21 0.20 0.21 0.21 0.21 0.20 0.20 0.20 0.19 0.17 0.15 0.14 0.14 0.14 0.15
0.28 0.28 0.28 0.29 0.29 0.29 0.29 0.29 0.29 0.28 0.28 0.27 0.28 0.32 0.33 0.32 0.29 0.29 0.31 0.29 0.27 0.27 0.29 0.30 0.30 0.27 0.26 0.24 0.22 0.22 0.21 0.21 0.21 0.21 0.21 0.20 0.20 0.20 0.17 0.15 0.13 0.15 0.15
0.20 0.19 0.18 0.17 0.16 0.15 0.15 0.16 0.16 0.20 0.23 0.24 0.26 0.28 0.34 0.31 0.26 0.27 0.30 0.28 0.28 0.29 0.30 0.30 0.31 0.29 0.29 0.27 0.24 0.24 0.23 0.23 0.23 0.22 0.22 0.21 0.20 0.20 0.19 0.15 0.14 0.14 0.15
0.15 0.14 0.15 0.15 0.15 0.15 0.16 0.15 0.16 0.15 0.15 0.18 0.24 0.32 0.33 0.31 0.28 0.27 0.27 0.28 0.29 0.30 0.30 0.31 0.32 0.30 0.30 0.31 0.30 0.27 0.25 0.25 0.24 0.24 0.23 0.22 0.20 0.19 0.20 0.18 0.15 0.15 0.15
0.14 0.15 0.15 0.15 0.14 0.14 0.15 0.17 0.18 0.18 0.18 0.17 0.18 0.20 0.24 0.30 0.29 0.28 0.29 0.29 0.30 0.32 0.33 0.33 0.32 0.32 0.32 0.32 0.31 0.30 0.28 0.27 0.27 0.26 0.25 0.23 0.21 0.20 0.20 0.19 0.17 0.15 0.15
0.13 0.13 0.13 0.13 0.13 0.13 0.14 0.15 0.15 0.17 0.19 0.20 0.27 0.28 0.30 0.28 0.29 0.30 0.30 0.29 0.29 0.30 0.33 0.33 0.33 0.33 0.33 0.33 0.34 0.33 0.30 0.28 0.29 0.29 0.28 0.26 0.23 0.21 0.20 0.20 0.18 0.16 0.15
0.12 0.12 0.10 0.10 0.11 0.11 0.12 0.13 0.15 0.16 0.17 0.19 0.23 0.25 0.27 0.27 0.26 0.27 0.27 0.26 0.26 0.27 0.28 0.29 0.31 0.32 0.33 0.33 0.34 0.34 0.33 0.32 0.32 0.31 0.30 0.28 0.26 0.24 0.21 0.20 0.19 0.17 0.16
0.11 0.10 0.10 0.10 0.10 0.10 0.11 0.12 0.13 0.15 0.16 0.18 0.18 0.20 0.21 0.22 0.23 0.23 0.23 0.23 0.22 0.22 0.24 0.27 0.28 0.29 0.30 0.30 0.33 0.32 0.30 0.30 0.31 0.31 0.30 0.29 0.27 0.25 0.23 0.20 0.19 0.18 0.17
0.10 0.10 0.10 0.10 0.10 0.10 0.11 0.11 0.12 0.13 0.14 0.15 0.17 0.18 0.19 0.19 0.20 0.20 0.21 0.20 0.19 0.20 0.21 0.24 0.25 0.25 0.25 0.26 0.26 0.27 0.31 0.31 0.30 0.30 0.30 0.28 0.26 0.25 0.24 0.21 0.20 0.19 0.18